Darstellungsparameter: Aktuell verwendete Einstellungen:
Skalierung der Graphiken ... ?
xyx+y,   Skalierungsfaktor:      Skalierung: Modus: x, Faktor: 1
Darstellungszeitraum ... ?
Vom - - bis: - -   Zeitraum: 07.02.2019 - 13.02.2019
Min/Max/Avg-Anzeige ... ?
Zeige MMA aktuell
Zeige MMA Monat
Zeige MMA alles
Zeige --A aktuell
Zeige --A Monat
Zeige --A alles
Keine MMA-Anzeige
MMA:
Keine MMA-Graphiken
MMA-Basis: 07.02.2019 - 13.02.2019
Quicknavigation für Darstellung... ?
Tage:      1T, 2T, 3T, 5T -1T -2T -3T -5T +1T +2T +3T +5T
Wochen: 1W, 2W, 3W -1W -2W -3W +1W +2W +3W
Monate: 1M, 3M, 6M -1M -3M -6M +1M +3M +6M
Jahre:    1J, 3J, 5J, 10J -1J -3J -5J -10J +1J +3J +5J +10J
Nutze für die Darstellung ... ?
Originaldaten oder Mittelwerte auf ...
Stundenbasis Tagesbasis Wochenbasis
Monatsbasis Jahresbasis      Datenbasis: Original-Daten
Darstellen als:
Statistik (Auto) Statistik J:M      Darstellung:
Zur Graphik,    zurück zur Übersicht aller Sensoren.
 
Tabellarische Datenbersicht: ?
 
Sensor: Nr:Datum:Temp:Feuchte:Taupunkt:
Aussen-T/F 1 07-02-2019 00:00:00 1.1 C 91 % -0.2 C
2 07-02-2019 00:05:00 1 C 91 % -0.3 C
3 07-02-2019 00:10:00 0.9 C 91 % -0.4 C
4 07-02-2019 00:15:00 0.8 C 91 % -0.5 C
5 07-02-2019 00:20:00 0.8 C 92 % -0.35 C
6 07-02-2019 00:25:00 0.9 C 92 % -0.25 C
7 07-02-2019 00:30:00 0.9 C 92 % -0.25 C
8 07-02-2019 00:35:00 0.9 C 92 % -0.25 C
9 07-02-2019 00:40:00 0.9 C 92 % -0.25 C
10 07-02-2019 00:45:00 0.9 C 92 % -0.25 C
11 07-02-2019 00:50:00 0.9 C 92 % -0.25 C
12 07-02-2019 00:55:00 0.9 C 92 % -0.25 C
13 07-02-2019 01:00:00 1 C 92 % -0.15 C
14 07-02-2019 01:05:00 1.1 C 92 % -0.05 C
15 07-02-2019 01:10:00 1.1 C 92 % -0.05 C
16 07-02-2019 01:15:00 1.1 C 92 % -0.05 C
17 07-02-2019 01:20:00 1.2 C 92 % 0.05 C
18 07-02-2019 01:25:00 1.2 C 92 % 0.05 C
19 07-02-2019 01:30:00 1.3 C 92 % 0.15 C
20 07-02-2019 01:35:00 1.3 C 92 % 0.15 C
21 07-02-2019 01:40:00 1.3 C 92 % 0.15 C
22 07-02-2019 01:45:00 1.3 C 92 % 0.15 C
23 07-02-2019 01:50:00 1.3 C 92 % 0.15 C
24 07-02-2019 01:55:00 1.3 C 92 % 0.15 C
25 07-02-2019 02:00:00 1.3 C 92 % 0.15 C
Sensor: Nr:Datum:Temp:Feuchte:Taupunkt:
Aussen-T/F 26 07-02-2019 02:05:00 1.3 C 92 % 0.15 C
27 07-02-2019 02:10:00 1.4 C 92 % 0.25 C
28 07-02-2019 02:15:00 1.4 C 92 % 0.25 C
29 07-02-2019 02:20:00 1.4 C 91 % 0.1 C
30 07-02-2019 02:25:00 1.5 C 91 % 0.19 C
31 07-02-2019 02:30:00 1.5 C 91 % 0.19 C
32 07-02-2019 02:35:00 1.5 C 91 % 0.19 C
33 07-02-2019 02:40:00 1.5 C 91 % 0.19 C
34 07-02-2019 02:45:00 1.5 C 91 % 0.19 C
35 07-02-2019 02:50:00 1.5 C 91 % 0.19 C
36 07-02-2019 02:55:00 1.5 C 92 % 0.35 C
37 07-02-2019 03:00:00 1.6 C 92 % 0.44 C
38 07-02-2019 03:05:00 1.6 C 92 % 0.44 C
39 07-02-2019 03:10:00 1.6 C 92 % 0.44 C
40 07-02-2019 03:15:00 1.7 C 92 % 0.54 C
41 07-02-2019 03:20:00 1.7 C 92 % 0.54 C
42 07-02-2019 03:25:00 1.7 C 92 % 0.54 C
43 07-02-2019 03:30:00 1.7 C 92 % 0.54 C
44 07-02-2019 03:35:00 1.8 C 92 % 0.64 C
45 07-02-2019 03:40:00 1.8 C 91 % 0.49 C
46 07-02-2019 03:45:00 1.8 C 91 % 0.49 C
47 07-02-2019 03:50:00 1.9 C 91 % 0.59 C
48 07-02-2019 03:55:00 1.9 C 91 % 0.59 C
49 07-02-2019 04:00:00 2 C 91 % 0.69 C
50 07-02-2019 04:05:00 2.1 C 91 % 0.79 C
Sensor: Nr:Datum:Temp:Feuchte:Taupunkt:
Aussen-T/F 51 07-02-2019 04:10:00 2.2 C 90 % 0.73 C
52 07-02-2019 04:15:00 2.2 C 90 % 0.73 C
53 07-02-2019 04:20:00 2.3 C 90 % 0.83 C
54 07-02-2019 04:25:00 2.3 C 90 % 0.83 C
55 07-02-2019 04:30:00 2.4 C 90 % 0.93 C
56 07-02-2019 04:35:00 2.4 C 90 % 0.93 C
57 07-02-2019 04:40:00 2.4 C 90 % 0.93 C
58 07-02-2019 04:45:00 2.5 C 91 % 1.18 C
59 07-02-2019 04:50:00 2.6 C 91 % 1.28 C
60 07-02-2019 04:55:00 2.6 C 91 % 1.28 C
61 07-02-2019 05:00:00 2.6 C 92 % 1.43 C
62 07-02-2019 05:05:00 2.6 C 92 % 1.43 C
63 07-02-2019 05:10:00 2.6 C 92 % 1.43 C
64 07-02-2019 05:15:00 2.6 C 92 % 1.43 C
65 07-02-2019 05:20:00 2.6 C 92 % 1.43 C
66 07-02-2019 05:25:00 2.6 C 91 % 1.28 C
67 07-02-2019 05:30:00 2.6 C 91 % 1.28 C
68 07-02-2019 05:35:00 2.7 C 90 % 1.23 C
69 07-02-2019 05:40:00 2.7 C 90 % 1.23 C
70 07-02-2019 05:45:00 2.7 C 90 % 1.23 C
71 07-02-2019 05:50:00 2.8 C 90 % 1.33 C
72 07-02-2019 05:55:00 2.8 C 90 % 1.33 C
73 07-02-2019 06:00:00 2.8 C 90 % 1.33 C
74 07-02-2019 06:05:00 2.9 C 90 % 1.43 C
75 07-02-2019 06:10:00 2.9 C 89 % 1.27 C
Sensor: Nr:Datum:Temp:Feuchte:Taupunkt:
Aussen-T/F 76 07-02-2019 06:15:00 2.9 C 89 % 1.27 C
77 07-02-2019 06:20:00 3 C 88 % 1.21 C
78 07-02-2019 06:25:00 3 C 88 % 1.21 C
79 07-02-2019 06:30:00 3 C 88 % 1.21 C
80 07-02-2019 06:35:00 3.1 C 88 % 1.31 C
81 07-02-2019 06:40:00 3.1 C 88 % 1.31 C
82 07-02-2019 06:45:00 3.1 C 88 % 1.31 C
83 07-02-2019 06:50:00 3.1 C 88 % 1.31 C
84 07-02-2019 06:55:00 3.2 C 88 % 1.41 C
85 07-02-2019 07:00:00 3.2 C 89 % 1.57 C
86 07-02-2019 07:05:00 3.3 C 89 % 1.67 C
87 07-02-2019 07:10:00 3.3 C 89 % 1.67 C
88 07-02-2019 07:15:00 3.4 C 89 % 1.76 C
89 07-02-2019 07:20:00 3.4 C 90 % 1.92 C
90 07-02-2019 07:25:00 3.4 C 89 % 1.76 C
91 07-02-2019 07:30:00 3.5 C 90 % 2.02 C
92 07-02-2019 07:35:00 3.6 C 90 % 2.12 C
93 07-02-2019 07:40:00 3.7 C 89 % 2.06 C
94 07-02-2019 07:45:00 3.7 C 89 % 2.06 C
95 07-02-2019 07:50:00 3.7 C 90 % 2.22 C
96 07-02-2019 07:55:00 3.8 C 90 % 2.31 C
97 07-02-2019 08:00:00 3.8 C 90 % 2.31 C
98 07-02-2019 08:05:00 3.9 C 91 % 2.57 C
99 07-02-2019 08:10:00 3.9 C 91 % 2.57 C
100 07-02-2019 08:15:00 3.9 C 92 % 2.72 C
Sensor: Nr:Datum:Temp:Feuchte:Taupunkt:
Aussen-T/F 101 07-02-2019 08:20:00 3.9 C 92 % 2.72 C
102 07-02-2019 08:25:00 4 C 93 % 2.97 C
103 07-02-2019 08:30:00 4 C 93 % 2.97 C
104 07-02-2019 08:35:00 4.1 C 93 % 3.07 C
105 07-02-2019 08:40:00 4.1 C 93 % 3.07 C
106 07-02-2019 08:45:00 4.1 C 93 % 3.07 C
107 07-02-2019 08:50:00 4.1 C 94 % 3.22 C
108 07-02-2019 08:55:00 4.1 C 94 % 3.22 C
109 07-02-2019 09:00:00 4.2 C 94 % 3.32 C
110 07-02-2019 09:05:00 4.2 C 94 % 3.32 C
111 07-02-2019 09:10:00 4.3 C 94 % 3.42 C
112 07-02-2019 09:15:00 4.3 C 94 % 3.42 C
113 07-02-2019 09:20:00 4.4 C 95 % 3.67 C
114 07-02-2019 09:25:00 4.5 C 95 % 3.77 C
115 07-02-2019 09:30:00 4.6 C 95 % 3.87 C
116 07-02-2019 09:35:00 4.6 C 95 % 3.87 C
117 07-02-2019 09:40:00 4.7 C 95 % 3.97 C
118 07-02-2019 09:45:00 4.8 C 95 % 4.07 C
119 07-02-2019 09:50:00 4.9 C 95 % 4.17 C
120 07-02-2019 09:55:00 4.9 C 95 % 4.17 C
121 07-02-2019 10:00:00 4.9 C 95 % 4.17 C
122 07-02-2019 10:05:00 5 C 95 % 4.27 C
123 07-02-2019 10:10:00 5 C 95 % 4.27 C
124 07-02-2019 10:15:00 5.1 C 95 % 4.37 C
125 07-02-2019 10:20:00 5.1 C 95 % 4.37 C
Sensor: Nr:Datum:Temp:Feuchte:Taupunkt:
Aussen-T/F 126 07-02-2019 10:25:00 5.2 C 95 % 4.47 C
127 07-02-2019 10:30:00 5.2 C 95 % 4.47 C
128 07-02-2019 10:35:00 5.2 C 95 % 4.47 C
129 07-02-2019 10:40:00 5.3 C 95 % 4.57 C
130 07-02-2019 10:45:00 5.3 C 95 % 4.57 C
131 07-02-2019 10:50:00 5.4 C 96 % 4.81 C
132 07-02-2019 10:55:00 5.4 C 95 % 4.66 C
133 07-02-2019 11:00:00 5.5 C 96 % 4.91 C
134 07-02-2019 11:05:00 5.4 C 95 % 4.66 C
135 07-02-2019 11:10:00 5.5 C 96 % 4.91 C
136 07-02-2019 11:15:00 5.6 C 95 % 4.86 C
137 07-02-2019 11:20:00 5.7 C 96 % 5.11 C
138 07-02-2019 11:25:00 5.7 C 96 % 5.11 C
139 07-02-2019 11:30:00 5.7 C 96 % 5.11 C
140 07-02-2019 11:35:00 5.7 C 96 % 5.11 C
141 07-02-2019 11:40:00 5.7 C 95 % 4.96 C
142 07-02-2019 11:45:00 5.7 C 95 % 4.96 C
143 07-02-2019 11:50:00 5.8 C 96 % 5.21 C
144 07-02-2019 11:55:00 6.1 C 96 % 5.51 C
145 07-02-2019 12:00:00 6.3 C 96 % 5.71 C
146 07-02-2019 12:05:00 6.4 C 96 % 5.81 C
147 07-02-2019 12:10:00 6.6 C 96 % 6.01 C
148 07-02-2019 12:15:00 6.7 C 96 % 6.11 C
149 07-02-2019 12:20:00 6.7 C 95 % 5.96 C
150 07-02-2019 12:25:00 6.7 C 95 % 5.96 C
Sensor: Nr:Datum:Temp:Feuchte:Taupunkt:
Aussen-T/F 151 07-02-2019 12:30:00 6.8 C 95 % 6.06 C
152 07-02-2019 12:35:00 6.9 C 95 % 6.16 C
153 07-02-2019 12:40:00 6.9 C 95 % 6.16 C
154 07-02-2019 12:45:00 7 C 94 % 6.1 C
155 07-02-2019 12:50:00 7.1 C 94 % 6.2 C
156 07-02-2019 12:55:00 7.2 C 94 % 6.3 C
157 07-02-2019 13:00:00 7.3 C 93 % 6.25 C
158 07-02-2019 13:05:00 7.3 C 93 % 6.25 C
159 07-02-2019 13:10:00 7.4 C 93 % 6.34 C
160 07-02-2019 13:15:00 7.5 C 92 % 6.29 C
161 07-02-2019 13:20:00 7.6 C 91 % 6.23 C
162 07-02-2019 13:25:00 7.6 C 91 % 6.23 C
163 07-02-2019 13:30:00 7.6 C 90 % 6.07 C
164 07-02-2019 13:35:00 7.6 C 90 % 6.07 C
165 07-02-2019 13:40:00 7.6 C 90 % 6.07 C
166 07-02-2019 13:45:00 7.6 C 90 % 6.07 C
167 07-02-2019 13:50:00 7.7 C 89 % 6 C
168 07-02-2019 13:55:00 7.7 C 89 % 6 C
169 07-02-2019 14:00:00 7.8 C 89 % 6.1 C
170 07-02-2019 14:05:00 7.8 C 88 % 5.94 C
171 07-02-2019 14:10:00 7.8 C 87 % 5.78 C
172 07-02-2019 14:15:00 7.9 C 87 % 5.87 C
173 07-02-2019 14:20:00 8 C 86 % 5.81 C
174 07-02-2019 14:25:00 8.1 C 85 % 5.73 C
175 07-02-2019 14:30:00 8.1 C 84 % 5.56 C
Sensor: Nr:Datum:Temp:Feuchte:Taupunkt:
Aussen-T/F 176 07-02-2019 14:35:00 8.2 C 84 % 5.66 C
177 07-02-2019 14:40:00 8.3 C 84 % 5.76 C
178 07-02-2019 14:45:00 8.3 C 84 % 5.76 C
179 07-02-2019 14:50:00 8.4 C 82 % 5.51 C
180 07-02-2019 14:55:00 8.4 C 82 % 5.51 C
181 07-02-2019 15:00:00 8.4 C 82 % 5.51 C
182 07-02-2019 15:05:00 8.5 C 82 % 5.61 C
183 07-02-2019 15:10:00 8.5 C 81 % 5.43 C
184 07-02-2019 15:15:00 8.5 C 81 % 5.43 C
185 07-02-2019 15:20:00 8.5 C 81 % 5.43 C
186 07-02-2019 15:25:00 8.4 C 81 % 5.33 C
187 07-02-2019 15:30:00 8.5 C 81 % 5.43 C
188 07-02-2019 15:35:00 8.5 C 81 % 5.43 C
189 07-02-2019 15:40:00 8.6 C 81 % 5.53 C
190 07-02-2019 15:45:00 8.7 C 80 % 5.45 C
191 07-02-2019 15:50:00 8.7 C 80 % 5.45 C
192 07-02-2019 15:55:00 8.6 C 79 % 5.17 C
193 07-02-2019 16:00:00 8.6 C 80 % 5.35 C
194 07-02-2019 16:05:00 8.6 C 80 % 5.35 C
195 07-02-2019 16:10:00 8.6 C 80 % 5.35 C
196 07-02-2019 16:15:00 8.6 C 80 % 5.35 C
197 07-02-2019 16:20:00 8.7 C 79 % 5.27 C
198 07-02-2019 16:25:00 8.7 C 78 % 5.08 C
199 07-02-2019 16:30:00 8.7 C 79 % 5.27 C
200 07-02-2019 16:35:00 8.7 C 79 % 5.27 C
Sensor: Nr:Datum:Temp:Feuchte:Taupunkt:
Aussen-T/F 201 07-02-2019 16:40:00 8.7 C 79 % 5.27 C
202 07-02-2019 16:45:00 8.5 C 79 % 5.07 C
203 07-02-2019 16:50:00 8.4 C 79 % 4.98 C
204 07-02-2019 16:55:00 8.3 C 79 % 4.88 C
205 07-02-2019 17:00:00 8.1 C 79 % 4.68 C
206 07-02-2019 17:05:00 8.1 C 80 % 4.86 C
207 07-02-2019 17:10:00 7.9 C 80 % 4.67 C
208 07-02-2019 17:15:00 7.8 C 80 % 4.57 C
209 07-02-2019 17:20:00 7.5 C 81 % 4.46 C
210 07-02-2019 17:25:00 7.4 C 82 % 4.53 C
211 07-02-2019 17:30:00 7.3 C 83 % 4.61 C
212 07-02-2019 17:35:00 7.3 C 83 % 4.61 C
213 07-02-2019 17:40:00 7.2 C 84 % 4.68 C
214 07-02-2019 17:45:00 7.2 C 84 % 4.68 C
215 07-02-2019 17:50:00 7.2 C 84 % 4.68 C
216 07-02-2019 17:55:00 7.2 C 85 % 4.85 C
217 07-02-2019 18:00:00 7.1 C 84 % 4.58 C
218 07-02-2019 18:05:00 7.1 C 84 % 4.58 C
219 07-02-2019 18:10:00 7 C 84 % 4.49 C
220 07-02-2019 18:15:00 6.9 C 84 % 4.39 C
221 07-02-2019 18:20:00 6.7 C 83 % 4.02 C
222 07-02-2019 18:25:00 6.6 C 84 % 4.1 C
223 07-02-2019 18:30:00 6.5 C 84 % 4 C
224 07-02-2019 18:35:00 6.4 C 84 % 3.9 C
225 07-02-2019 18:40:00 6.3 C 84 % 3.8 C
Sensor: Nr:Datum:Temp:Feuchte:Taupunkt:
Aussen-T/F 226 07-02-2019 18:45:00 6.2 C 84 % 3.7 C
227 07-02-2019 18:50:00 6.2 C 84 % 3.7 C
228 07-02-2019 18:55:00 6.2 C 83 % 3.53 C
229 07-02-2019 19:00:00 6.4 C 82 % 3.56 C
230 07-02-2019 19:05:00 6.7 C 81 % 3.68 C
231 07-02-2019 19:10:00 6.8 C 81 % 3.77 C
232 07-02-2019 19:15:00 6.8 C 81 % 3.77 C
233 07-02-2019 19:20:00 6.7 C 80 % 3.5 C
234 07-02-2019 19:25:00 6.7 C 81 % 3.68 C
235 07-02-2019 19:30:00 6.6 C 81 % 3.58 C
236 07-02-2019 19:35:00 6.6 C 81 % 3.58 C
237 07-02-2019 19:40:00 6.7 C 81 % 3.68 C
238 07-02-2019 19:45:00 6.7 C 81 % 3.68 C
239 07-02-2019 19:50:00 6.6 C 81 % 3.58 C
240 07-02-2019 19:55:00 6.5 C 82 % 3.66 C
241 07-02-2019 20:00:00 6.4 C 83 % 3.73 C
242 07-02-2019 20:05:00 6.4 C 83 % 3.73 C
243 07-02-2019 20:10:00 6.4 C 83 % 3.73 C
244 07-02-2019 20:15:00 6.4 C 83 % 3.73 C
245 07-02-2019 20:20:00 6.3 C 82 % 3.46 C
246 07-02-2019 20:25:00 6.3 C 83 % 3.63 C
247 07-02-2019 20:30:00 6.2 C 83 % 3.53 C
248 07-02-2019 20:35:00 6.2 C 83 % 3.53 C
249 07-02-2019 20:40:00 6.2 C 83 % 3.53 C
250 07-02-2019 20:45:00 6.2 C 83 % 3.53 C
Sensor: Nr:Datum:Temp:Feuchte:Taupunkt:
Aussen-T/F 251 07-02-2019 20:50:00 6.2 C 84 % 3.7 C
252 07-02-2019 20:55:00 6.2 C 84 % 3.7 C
253 07-02-2019 21:00:00 6.2 C 84 % 3.7 C
254 07-02-2019 21:05:00 6.3 C 84 % 3.8 C
255 07-02-2019 21:10:00 6.5 C 84 % 4 C
256 07-02-2019 21:15:00 6.7 C 83 % 4.02 C
257 07-02-2019 21:20:00 6.9 C 83 % 4.22 C
258 07-02-2019 21:25:00 7.2 C 82 % 4.34 C
259 07-02-2019 21:30:00 7.3 C 81 % 4.26 C
260 07-02-2019 21:35:00 7.3 C 81 % 4.26 C
261 07-02-2019 21:40:00 7.2 C 81 % 4.16 C
262 07-02-2019 21:45:00 7.1 C 81 % 4.07 C
263 07-02-2019 21:50:00 7.1 C 81 % 4.07 C
264 07-02-2019 21:55:00 7 C 81 % 3.97 C
265 07-02-2019 22:00:00 6.9 C 81 % 3.87 C
266 07-02-2019 22:05:00 6.8 C 81 % 3.77 C
267 07-02-2019 22:10:00 6.7 C 81 % 3.68 C
268 07-02-2019 22:15:00 6.6 C 81 % 3.58 C
269 07-02-2019 22:20:00 6.5 C 81 % 3.48 C
270 07-02-2019 22:25:00 6.4 C 81 % 3.38 C
271 07-02-2019 22:30:00 6.3 C 82 % 3.46 C
272 07-02-2019 22:35:00 6.3 C 83 % 3.63 C
273 07-02-2019 22:40:00 6.2 C 83 % 3.53 C
274 07-02-2019 22:45:00 6.2 C 84 % 3.7 C
275 07-02-2019 22:50:00 6.2 C 84 % 3.7 C
Sensor: Nr:Datum:Temp:Feuchte:Taupunkt:
Aussen-T/F 276 07-02-2019 22:55:00 6.2 C 84 % 3.7 C
277 07-02-2019 23:00:00 6.2 C 84 % 3.7 C
278 07-02-2019 23:05:00 6.3 C 84 % 3.8 C
279 07-02-2019 23:10:00 6.4 C 84 % 3.9 C
280 07-02-2019 23:15:00 6.3 C 84 % 3.8 C
281 07-02-2019 23:20:00 6.3 C 84 % 3.8 C
282 07-02-2019 23:25:00 6.3 C 84 % 3.8 C
283 07-02-2019 23:30:00 6.3 C 85 % 3.97 C
284 07-02-2019 23:35:00 6.2 C 84 % 3.7 C
285 07-02-2019 23:40:00 6.1 C 85 % 3.77 C
286 07-02-2019 23:45:00 6.1 C 85 % 3.77 C
287 07-02-2019 23:50:00 6 C 85 % 3.67 C
288 07-02-2019 23:55:00 5.9 C 85 % 3.58 C
289 08-02-2019 00:00:00 5.8 C 85 % 3.48 C
290 08-02-2019 00:05:00 5.7 C 86 % 3.55 C
291 08-02-2019 00:10:00 5.6 C 86 % 3.45 C
292 08-02-2019 00:15:00 5.4 C 86 % 3.25 C
293 08-02-2019 00:20:00 5.3 C 87 % 3.32 C
294 08-02-2019 00:25:00 5.3 C 88 % 3.48 C
295 08-02-2019 00:30:00 5.4 C 89 % 3.74 C
296 08-02-2019 00:35:00 5.4 C 89 % 3.74 C
297 08-02-2019 00:40:00 5.5 C 88 % 3.67 C
298 08-02-2019 00:45:00 5.6 C 88 % 3.77 C
299 08-02-2019 00:50:00 5.6 C 88 % 3.77 C
300 08-02-2019 00:55:00 5.7 C 88 % 3.87 C
Sensor: Nr:Datum:Temp:Feuchte:Taupunkt:
Aussen-T/F 301 08-02-2019 01:00:00 5.9 C 88 % 4.07 C
302 08-02-2019 01:05:00 6 C 87 % 4 C
303 08-02-2019 01:10:00 6.1 C 86 % 3.94 C
304 08-02-2019 01:15:00 6.2 C 86 % 4.04 C
305 08-02-2019 01:20:00 6.1 C 85 % 3.77 C
306 08-02-2019 01:25:00 5.9 C 85 % 3.58 C
307 08-02-2019 01:30:00 5.8 C 86 % 3.64 C
308 08-02-2019 01:35:00 5.7 C 86 % 3.55 C
309 08-02-2019 01:40:00 5.7 C 87 % 3.71 C
310 08-02-2019 01:45:00 5.8 C 87 % 3.81 C
311 08-02-2019 01:50:00 5.8 C 87 % 3.81 C
312 08-02-2019 01:55:00 5.7 C 87 % 3.71 C
313 08-02-2019 02:00:00 5.7 C 87 % 3.71 C
314 08-02-2019 02:05:00 5.7 C 87 % 3.71 C
315 08-02-2019 02:10:00 5.7 C 87 % 3.71 C
316 08-02-2019 02:15:00 5.8 C 87 % 3.81 C
317 08-02-2019 02:20:00 5.8 C 87 % 3.81 C
318 08-02-2019 02:25:00 5.9 C 87 % 3.91 C
319 08-02-2019 02:30:00 5.9 C 87 % 3.91 C
320 08-02-2019 02:35:00 5.9 C 87 % 3.91 C
321 08-02-2019 02:40:00 5.9 C 87 % 3.91 C
322 08-02-2019 02:45:00 5.8 C 86 % 3.64 C
323 08-02-2019 02:50:00 5.8 C 86 % 3.64 C
324 08-02-2019 02:55:00 5.7 C 87 % 3.71 C
325 08-02-2019 03:00:00 5.6 C 87 % 3.61 C
Sensor: Nr:Datum:Temp:Feuchte:Taupunkt:
Aussen-T/F 326 08-02-2019 03:05:00 5.6 C 88 % 3.77 C
327 08-02-2019 03:10:00 5.7 C 88 % 3.87 C
328 08-02-2019 03:15:00 5.7 C 88 % 3.87 C
329 08-02-2019 03:20:00 5.8 C 88 % 3.97 C
330 08-02-2019 03:25:00 5.8 C 88 % 3.97 C
331 08-02-2019 03:30:00 5.8 C 87 % 3.81 C
332 08-02-2019 03:35:00 5.8 C 87 % 3.81 C
333 08-02-2019 03:40:00 5.8 C 87 % 3.81 C
334 08-02-2019 03:45:00 5.8 C 87 % 3.81 C
335 08-02-2019 03:50:00 5.8 C 88 % 3.97 C
336 08-02-2019 03:55:00 5.8 C 88 % 3.97 C
337 08-02-2019 04:00:00 5.9 C 88 % 4.07 C
338 08-02-2019 04:05:00 6.1 C 87 % 4.1 C
339 08-02-2019 04:10:00 6.2 C 87 % 4.2 C
340 08-02-2019 04:15:00 6.3 C 86 % 4.14 C
341 08-02-2019 04:20:00 6.3 C 86 % 4.14 C
342 08-02-2019 04:25:00 6.3 C 86 % 4.14 C
343 08-02-2019 04:30:00 6.3 C 86 % 4.14 C
344 08-02-2019 04:35:00 6.4 C 86 % 4.23 C
345 08-02-2019 04:40:00 6.4 C 86 % 4.23 C
346 08-02-2019 04:45:00 6.4 C 86 % 4.23 C
347 08-02-2019 04:50:00 6.4 C 86 % 4.23 C
348 08-02-2019 04:55:00 6.4 C 86 % 4.23 C
349 08-02-2019 05:00:00 6.3 C 86 % 4.14 C
350 08-02-2019 05:05:00 6.3 C 86 % 4.14 C
Sensor: Nr:Datum:Temp:Feuchte:Taupunkt:
Aussen-T/F 351 08-02-2019 05:10:00 6.3 C 86 % 4.14 C
352 08-02-2019 05:15:00 6.3 C 86 % 4.14 C
353 08-02-2019 05:20:00 6.3 C 86 % 4.14 C
354 08-02-2019 05:25:00 6.4 C 87 % 4.4 C
355 08-02-2019 05:30:00 6.4 C 86 % 4.23 C
356 08-02-2019 05:35:00 6.4 C 86 % 4.23 C
357 08-02-2019 05:40:00 6.5 C 86 % 4.33 C
358 08-02-2019 05:45:00 6.5 C 86 % 4.33 C
359 08-02-2019 05:50:00 6.5 C 86 % 4.33 C
360 08-02-2019 05:55:00 6.6 C 86 % 4.43 C
361 08-02-2019 06:00:00 6.5 C 86 % 4.33 C
362 08-02-2019 06:05:00 6.4 C 86 % 4.23 C
363 08-02-2019 06:10:00 6.3 C 86 % 4.14 C
364 08-02-2019 06:15:00 6.3 C 86 % 4.14 C
365 08-02-2019 06:20:00 6.3 C 87 % 4.3 C
366 08-02-2019 06:25:00 6.3 C 87 % 4.3 C
367 08-02-2019 06:30:00 6.3 C 87 % 4.3 C
368 08-02-2019 06:35:00 6.3 C 87 % 4.3 C
369 08-02-2019 06:40:00 6.3 C 87 % 4.3 C
370 08-02-2019 06:45:00 6.3 C 87 % 4.3 C
371 08-02-2019 06:50:00 6.3 C 87 % 4.3 C
372 08-02-2019 06:55:00 6.3 C 87 % 4.3 C
373 08-02-2019 07:00:00 6.3 C 87 % 4.3 C
374 08-02-2019 07:05:00 6.3 C 87 % 4.3 C
375 08-02-2019 07:10:00 6.3 C 87 % 4.3 C
Sensor: Nr:Datum:Temp:Feuchte:Taupunkt:
Aussen-T/F 376 08-02-2019 07:15:00 6.3 C 87 % 4.3 C
377 08-02-2019 07:20:00 6.3 C 87 % 4.3 C
378 08-02-2019 07:25:00 6.3 C 87 % 4.3 C
379 08-02-2019 07:30:00 6.3 C 87 % 4.3 C
380 08-02-2019 07:35:00 6.4 C 87 % 4.4 C
381 08-02-2019 07:40:00 6.4 C 87 % 4.4 C
382 08-02-2019 07:45:00 6.5 C 86 % 4.33 C
383 08-02-2019 07:50:00 6.6 C 86 % 4.43 C
384 08-02-2019 07:55:00 6.6 C 86 % 4.43 C
385 08-02-2019 08:00:00 6.6 C 86 % 4.43 C
386 08-02-2019 08:05:00 6.6 C 86 % 4.43 C
387 08-02-2019 08:10:00 6.6 C 86 % 4.43 C
388 08-02-2019 08:15:00 6.6 C 86 % 4.43 C
389 08-02-2019 08:20:00 6.6 C 86 % 4.43 C
390 08-02-2019 08:25:00 6.7 C 86 % 4.53 C
391 08-02-2019 08:30:00 6.7 C 86 % 4.53 C
392 08-02-2019 08:35:00 6.7 C 86 % 4.53 C
393 08-02-2019 08:40:00 6.7 C 86 % 4.53 C
394 08-02-2019 08:45:00 6.7 C 86 % 4.53 C
395 08-02-2019 08:50:00 6.8 C 86 % 4.63 C
396 08-02-2019 08:55:00 6.8 C 86 % 4.63 C
397 08-02-2019 09:00:00 6.8 C 86 % 4.63 C
398 08-02-2019 09:05:00 6.9 C 86 % 4.72 C
399 08-02-2019 09:10:00 6.9 C 86 % 4.72 C
400 08-02-2019 09:15:00 6.9 C 86 % 4.72 C
Sensor: Nr:Datum:Temp:Feuchte:Taupunkt:
Aussen-T/F 401 08-02-2019 09:20:00 7 C 86 % 4.82 C
402 08-02-2019 09:25:00 7.1 C 86 % 4.92 C
403 08-02-2019 09:30:00 7.1 C 86 % 4.92 C
404 08-02-2019 09:35:00 7.1 C 85 % 4.75 C
405 08-02-2019 09:40:00 7.2 C 85 % 4.85 C
406 08-02-2019 09:45:00 7.2 C 85 % 4.85 C
407 08-02-2019 09:50:00 7.2 C 85 % 4.85 C
408 08-02-2019 09:55:00 7.2 C 85 % 4.85 C
409 08-02-2019 10:00:00 7.2 C 85 % 4.85 C
410 08-02-2019 10:05:00 7.3 C 85 % 4.95 C
411 08-02-2019 10:10:00 7.3 C 85 % 4.95 C
412 08-02-2019 10:15:00 7.3 C 85 % 4.95 C
413 08-02-2019 10:20:00 7.3 C 85 % 4.95 C
414 08-02-2019 10:25:00 7.3 C 85 % 4.95 C
415 08-02-2019 10:30:00 7.4 C 86 % 5.22 C
416 08-02-2019 10:35:00 7.4 C 85 % 5.05 C
417 08-02-2019 10:40:00 7.5 C 85 % 5.15 C
418 08-02-2019 10:45:00 7.6 C 85 % 5.24 C
419 08-02-2019 10:50:00 7.7 C 85 % 5.34 C
420 08-02-2019 10:55:00 7.8 C 85 % 5.44 C
421 08-02-2019 11:00:00 7.9 C 84 % 5.37 C
422 08-02-2019 11:05:00 8 C 84 % 5.47 C
423 08-02-2019 11:10:00 8.1 C 84 % 5.56 C
424 08-02-2019 11:15:00 8.3 C 83 % 5.59 C
425 08-02-2019 11:20:00 8.3 C 83 % 5.59 C
Sensor: Nr:Datum:Temp:Feuchte:Taupunkt:
Aussen-T/F 426 08-02-2019 11:25:00 8.5 C 83 % 5.78 C
427 08-02-2019 11:30:00 8.6 C 82 % 5.71 C
428 08-02-2019 11:35:00 8.7 C 82 % 5.8 C
429 08-02-2019 11:40:00 8.7 C 81 % 5.63 C
430 08-02-2019 11:45:00 8.7 C 81 % 5.63 C
431 08-02-2019 11:50:00 8.8 C 81 % 5.72 C
432 08-02-2019 11:55:00 8.8 C 81 % 5.72 C
433 08-02-2019 12:00:00 8.9 C 82 % 6 C
434 08-02-2019 12:05:00 9.1 C 80 % 5.84 C
435 08-02-2019 12:10:00 9.2 C 80 % 5.94 C
436 08-02-2019 12:15:00 9.3 C 80 % 6.03 C
437 08-02-2019 12:20:00 9.4 C 80 % 6.13 C
438 08-02-2019 12:25:00 9.4 C 79 % 5.95 C
439 08-02-2019 12:30:00 9.6 C 79 % 6.14 C
440 08-02-2019 12:35:00 9.6 C 79 % 6.14 C
441 08-02-2019 12:40:00 9.7 C 79 % 6.24 C
442 08-02-2019 12:45:00 9.7 C 79 % 6.24 C
443 08-02-2019 12:50:00 9.7 C 78 % 6.06 C
444 08-02-2019 12:55:00 9.7 C 79 % 6.24 C
445 08-02-2019 13:00:00 9.7 C 78 % 6.06 C
446 08-02-2019 13:05:00 9.7 C 79 % 6.24 C
447 08-02-2019 13:10:00 9.6 C 79 % 6.14 C
448 08-02-2019 13:15:00 9.5 C 78 % 5.86 C
449 08-02-2019 13:20:00 9.4 C 79 % 5.95 C
450 08-02-2019 13:25:00 9.3 C 79 % 5.85 C
Sensor: Nr:Datum:Temp:Feuchte:Taupunkt:
Aussen-T/F 451 08-02-2019 13:30:00 9.2 C 80 % 5.94 C
452 08-02-2019 13:35:00 9.1 C 80 % 5.84 C
453 08-02-2019 13:40:00 8.9 C 80 % 5.64 C
454 08-02-2019 13:45:00 8.8 C 81 % 5.72 C
455 08-02-2019 13:50:00 8.7 C 81 % 5.63 C
456 08-02-2019 13:55:00 8.7 C 81 % 5.63 C
457 08-02-2019 14:00:00 8.6 C 81 % 5.53 C
458 08-02-2019 14:05:00 8.5 C 81 % 5.43 C
459 08-02-2019 14:10:00 8.4 C 81 % 5.33 C
460 08-02-2019 14:15:00 8.4 C 82 % 5.51 C
461 08-02-2019 14:20:00 8.4 C 82 % 5.51 C
462 08-02-2019 14:25:00 8.4 C 82 % 5.51 C
463 08-02-2019 14:30:00 8.4 C 82 % 5.51 C
464 08-02-2019 14:35:00 8.4 C 82 % 5.51 C
465 08-02-2019 14:40:00 8.4 C 82 % 5.51 C
466 08-02-2019 14:45:00 8.4 C 82 % 5.51 C
467 08-02-2019 14:50:00 8.3 C 82 % 5.41 C
468 08-02-2019 14:55:00 8.3 C 82 % 5.41 C
469 08-02-2019 15:00:00 8.3 C 83 % 5.59 C
470 08-02-2019 15:05:00 8.3 C 82 % 5.41 C
471 08-02-2019 15:10:00 8.3 C 82 % 5.41 C
472 08-02-2019 15:15:00 8.3 C 82 % 5.41 C
473 08-02-2019 15:20:00 8.3 C 82 % 5.41 C
474 08-02-2019 15:25:00 8.3 C 83 % 5.59 C
475 08-02-2019 15:30:00 8.2 C 83 % 5.49 C
Sensor: Nr:Datum:Temp:Feuchte:Taupunkt:
Aussen-T/F 476 08-02-2019 15:35:00 8.2 C 83 % 5.49 C
477 08-02-2019 15:40:00 8.2 C 83 % 5.49 C
478 08-02-2019 15:45:00 8.2 C 83 % 5.49 C
479 08-02-2019 15:50:00 8.2 C 83 % 5.49 C
480 08-02-2019 15:55:00 8.2 C 83 % 5.49 C
481 08-02-2019 16:00:00 8.2 C 83 % 5.49 C
482 08-02-2019 16:05:00 8.2 C 83 % 5.49 C
483 08-02-2019 16:10:00 8.3 C 83 % 5.59 C
484 08-02-2019 16:15:00 8.3 C 83 % 5.59 C
485 08-02-2019 16:20:00 8.3 C 82 % 5.41 C
486 08-02-2019 16:25:00 8.3 C 82 % 5.41 C
487 08-02-2019 16:30:00 8.3 C 83 % 5.59 C
488 08-02-2019 16:35:00 8.3 C 83 % 5.59 C
489 08-02-2019 16:40:00 8.3 C 83 % 5.59 C
490 08-02-2019 16:45:00 8.3 C 83 % 5.59 C
491 08-02-2019 16:50:00 8.3 C 83 % 5.59 C
492 08-02-2019 16:55:00 8.3 C 82 % 5.41 C
493 08-02-2019 17:00:00 8.3 C 82 % 5.41 C
494 08-02-2019 17:05:00 8.3 C 82 % 5.41 C
495 08-02-2019 17:10:00 8.3 C 82 % 5.41 C
496 08-02-2019 17:15:00 8.3 C 82 % 5.41 C
497 08-02-2019 17:20:00 8.3 C 82 % 5.41 C
498 08-02-2019 17:25:00 8.2 C 82 % 5.32 C
499 08-02-2019 17:30:00 8.2 C 82 % 5.32 C
500 08-02-2019 17:35:00 8.2 C 82 % 5.32 C
Sensor: Nr:Datum:Temp:Feuchte:Taupunkt:
Aussen-T/F 501 08-02-2019 17:40:00 8.2 C 82 % 5.32 C
502 08-02-2019 17:45:00 8.1 C 82 % 5.22 C
503 08-02-2019 17:50:00 8.1 C 82 % 5.22 C
504 08-02-2019 17:55:00 8.1 C 82 % 5.22 C
505 08-02-2019 18:00:00 8 C 83 % 5.29 C
506 08-02-2019 18:05:00 8 C 83 % 5.29 C
507 08-02-2019 18:10:00 7.9 C 83 % 5.2 C
508 08-02-2019 18:15:00 7.9 C 83 % 5.2 C
509 08-02-2019 18:20:00 8 C 83 % 5.29 C
510 08-02-2019 18:25:00 8 C 83 % 5.29 C
511 08-02-2019 18:30:00 8.1 C 82 % 5.22 C
512 08-02-2019 18:35:00 8.1 C 82 % 5.22 C
513 08-02-2019 18:40:00 8.2 C 82 % 5.32 C
514 08-02-2019 18:45:00 8.2 C 81 % 5.14 C
515 08-02-2019 18:50:00 8.2 C 81 % 5.14 C
516 08-02-2019 18:55:00 8.2 C 82 % 5.32 C
517 08-02-2019 19:00:00 8.2 C 81 % 5.14 C
518 08-02-2019 19:05:00 8.2 C 81 % 5.14 C
519 08-02-2019 19:10:00 8.2 C 81 % 5.14 C
520 08-02-2019 19:15:00 8.2 C 81 % 5.14 C
521 08-02-2019 19:20:00 8.2 C 81 % 5.14 C
522 08-02-2019 19:25:00 8.2 C 81 % 5.14 C
523 08-02-2019 19:30:00 8.2 C 81 % 5.14 C
524 08-02-2019 19:35:00 8.2 C 81 % 5.14 C
525 08-02-2019 19:40:00 8.2 C 81 % 5.14 C
Sensor: Nr:Datum:Temp:Feuchte:Taupunkt:
Aussen-T/F 526 08-02-2019 19:45:00 8.2 C 81 % 5.14 C
527 08-02-2019 19:50:00 8.3 C 81 % 5.24 C
528 08-02-2019 19:55:00 8.3 C 81 % 5.24 C
529 08-02-2019 20:00:00 8.3 C 81 % 5.24 C
530 08-02-2019 20:05:00 8.3 C 81 % 5.24 C
531 08-02-2019 20:10:00 8.3 C 80 % 5.06 C
532 08-02-2019 20:15:00 8.3 C 81 % 5.24 C
533 08-02-2019 20:20:00 8.2 C 80 % 4.96 C
534 08-02-2019 20:25:00 8.2 C 80 % 4.96 C
535 08-02-2019 20:30:00 8.3 C 80 % 5.06 C
536 08-02-2019 20:35:00 8.2 C 80 % 4.96 C
537 08-02-2019 20:40:00 8.2 C 80 % 4.96 C
538 08-02-2019 20:45:00 8.2 C 80 % 4.96 C
539 08-02-2019 20:50:00 8.2 C 80 % 4.96 C
540 08-02-2019 20:55:00 8.1 C 81 % 5.04 C
541 08-02-2019 21:00:00 8.1 C 80 % 4.86 C
542 08-02-2019 21:05:00 8.2 C 80 % 4.96 C
543 08-02-2019 21:10:00 8.2 C 80 % 4.96 C
544 08-02-2019 21:15:00 8.1 C 80 % 4.86 C
545 08-02-2019 21:20:00 8.1 C 80 % 4.86 C
546 08-02-2019 21:25:00 8.1 C 80 % 4.86 C
547 08-02-2019 21:30:00 8.1 C 81 % 5.04 C
548 08-02-2019 21:35:00 8.1 C 80 % 4.86 C
549 08-02-2019 21:40:00 8.1 C 80 % 4.86 C
550 08-02-2019 21:45:00 8 C 80 % 4.77 C
Sensor: Nr:Datum:Temp:Feuchte:Taupunkt:
Aussen-T/F 551 08-02-2019 21:50:00 7.9 C 80 % 4.67 C
552 08-02-2019 21:55:00 7.9 C 80 % 4.67 C
553 08-02-2019 22:00:00 7.9 C 80 % 4.67 C
554 08-02-2019 22:05:00 7.8 C 80 % 4.57 C
555 08-02-2019 22:10:00 7.8 C 81 % 4.75 C
556 08-02-2019 22:15:00 7.7 C 81 % 4.65 C
557 08-02-2019 22:20:00 7.6 C 81 % 4.55 C
558 08-02-2019 22:25:00 7.7 C 81 % 4.65 C
559 08-02-2019 22:30:00 7.7 C 81 % 4.65 C
560 08-02-2019 22:35:00 7.8 C 81 % 4.75 C
561 08-02-2019 22:40:00 7.8 C 81 % 4.75 C
562 08-02-2019 22:45:00 7.7 C 81 % 4.65 C
563 08-02-2019 22:50:00 7.8 C 80 % 4.57 C
564 08-02-2019 22:55:00 7.8 C 80 % 4.57 C
565 08-02-2019 23:00:00 7.9 C 80 % 4.67 C
566 08-02-2019 23:05:00 7.9 C 80 % 4.67 C
567 08-02-2019 23:10:00 8.1 C 80 % 4.86 C
568 08-02-2019 23:15:00 8.1 C 79 % 4.68 C
569 08-02-2019 23:20:00 8.1 C 79 % 4.68 C
570 08-02-2019 23:25:00 8.1 C 79 % 4.68 C
571 08-02-2019 23:30:00 8.1 C 79 % 4.68 C
572 08-02-2019 23:35:00 8.1 C 80 % 4.86 C
573 08-02-2019 23:40:00 8.1 C 79 % 4.68 C
574 08-02-2019 23:45:00 8.2 C 79 % 4.78 C
575 08-02-2019 23:50:00 8.2 C 79 % 4.78 C
Sensor: Nr:Datum:Temp:Feuchte:Taupunkt:
Aussen-T/F 576 08-02-2019 23:55:00 8.3 C 78 % 4.7 C
577 09-02-2019 00:00:00 8.3 C 79 % 4.88 C
578 09-02-2019 00:05:00 8.2 C 78 % 4.6 C
579 09-02-2019 00:10:00 8.2 C 79 % 4.78 C
580 09-02-2019 00:15:00 8.2 C 79 % 4.78 C
581 09-02-2019 00:20:00 8.2 C 78 % 4.6 C
582 09-02-2019 00:25:00 8.3 C 78 % 4.7 C
583 09-02-2019 00:30:00 8.3 C 78 % 4.7 C
584 09-02-2019 00:35:00 8.4 C 78 % 4.79 C
585 09-02-2019 00:40:00 8.4 C 77 % 4.61 C
586 09-02-2019 00:45:00 8.4 C 77 % 4.61 C
587 09-02-2019 00:50:00 8.3 C 77 % 4.51 C
588 09-02-2019 00:55:00 8.3 C 77 % 4.51 C
589 09-02-2019 01:00:00 8.3 C 78 % 4.7 C
590 09-02-2019 01:05:00 8.3 C 78 % 4.7 C
591 09-02-2019 01:10:00 8.2 C 79 % 4.78 C
592 09-02-2019 01:15:00 8.1 C 82 % 5.22 C
593 09-02-2019 01:20:00 7.9 C 81 % 4.85 C
594 09-02-2019 01:25:00 7.8 C 81 % 4.75 C
595 09-02-2019 01:30:00 7.7 C 82 % 4.83 C
596 09-02-2019 01:35:00 7.6 C 82 % 4.73 C
597 09-02-2019 01:40:00 7.5 C 83 % 4.81 C
598 09-02-2019 01:45:00 7.4 C 83 % 4.71 C
599 09-02-2019 01:50:00 7.4 C 84 % 4.88 C
600 09-02-2019 01:55:00 7.3 C 84 % 4.78 C
Sensor: Nr:Datum:Temp:Feuchte:Taupunkt:
Aussen-T/F 601 09-02-2019 02:00:00 7.3 C 85 % 4.95 C
602 09-02-2019 02:05:00 7.3 C 85 % 4.95 C
603 09-02-2019 02:10:00 7.3 C 86 % 5.12 C
604 09-02-2019 02:15:00 7.3 C 86 % 5.12 C
605 09-02-2019 02:20:00 7.4 C 86 % 5.22 C
606 09-02-2019 02:25:00 7.4 C 86 % 5.22 C
607 09-02-2019 02:30:00 7.5 C 86 % 5.31 C
608 09-02-2019 02:35:00 7.6 C 86 % 5.41 C
609 09-02-2019 02:40:00 7.6 C 85 % 5.24 C
610 09-02-2019 02:45:00 7.6 C 85 % 5.24 C
611 09-02-2019 02:50:00 7.7 C 85 % 5.34 C
612 09-02-2019 02:55:00 7.7 C 85 % 5.34 C
613 09-02-2019 03:00:00 7.7 C 85 % 5.34 C
614 09-02-2019 03:05:00 7.8 C 85 % 5.44 C
615 09-02-2019 03:10:00 7.8 C 85 % 5.44 C
616 09-02-2019 03:15:00 7.9 C 85 % 5.54 C
617 09-02-2019 03:20:00 8 C 84 % 5.47 C
618 09-02-2019 03:25:00 8.1 C 84 % 5.56 C
619 09-02-2019 03:30:00 8.1 C 84 % 5.56 C
620 09-02-2019 03:35:00 8.2 C 84 % 5.66 C
621 09-02-2019 03:40:00 8.3 C 84 % 5.76 C
622 09-02-2019 03:45:00 8.3 C 84 % 5.76 C
623 09-02-2019 03:50:00 8.3 C 84 % 5.76 C
624 09-02-2019 03:55:00 8.4 C 83 % 5.69 C
625 09-02-2019 04:00:00 8.6 C 83 % 5.88 C
Sensor: Nr:Datum:Temp:Feuchte:Taupunkt:
Aussen-T/F 626 09-02-2019 04:05:00 8.7 C 82 % 5.8 C
627 09-02-2019 04:10:00 8.8 C 81 % 5.72 C
628 09-02-2019 04:15:00 8.9 C 81 % 5.82 C
629 09-02-2019 04:20:00 8.9 C 81 % 5.82 C
630 09-02-2019 04:25:00 9.1 C 81 % 6.02 C
631 09-02-2019 04:30:00 9.1 C 82 % 6.19 C
632 09-02-2019 04:35:00 9.1 C 82 % 6.19 C
633 09-02-2019 04:40:00 9.1 C 83 % 6.37 C
634 09-02-2019 04:45:00 8.9 C 83 % 6.17 C
635 09-02-2019 04:50:00 8.9 C 83 % 6.17 C
636 09-02-2019 04:55:00 8.8 C 83 % 6.08 C
637 09-02-2019 05:00:00 8.7 C 83 % 5.98 C
638 09-02-2019 05:05:00 8.6 C 83 % 5.88 C
639 09-02-2019 05:10:00 8.5 C 84 % 5.96 C
640 09-02-2019 05:15:00 8.4 C 84 % 5.86 C
641 09-02-2019 05:20:00 8.3 C 84 % 5.76 C
642 09-02-2019 05:25:00 8.3 C 84 % 5.76 C
643 09-02-2019 05:30:00 8.2 C 84 % 5.66 C
644 09-02-2019 05:35:00 8.1 C 84 % 5.56 C
645 09-02-2019 05:40:00 8 C 84 % 5.47 C
646 09-02-2019 05:45:00 7.9 C 84 % 5.37 C
647 09-02-2019 05:50:00 8 C 83 % 5.29 C
648 09-02-2019 05:55:00 8.1 C 83 % 5.39 C
649 09-02-2019 06:00:00 8.1 C 83 % 5.39 C
650 09-02-2019 06:05:00 8 C 83 % 5.29 C
Sensor: Nr:Datum:Temp:Feuchte:Taupunkt:
Aussen-T/F 651 09-02-2019 06:10:00 7.9 C 83 % 5.2 C
652 09-02-2019 06:15:00 7.8 C 83 % 5.1 C
653 09-02-2019 06:20:00 7.8 C 83 % 5.1 C
654 09-02-2019 06:25:00 7.7 C 83 % 5 C
655 09-02-2019 06:30:00 7.7 C 83 % 5 C
656 09-02-2019 06:35:00 7.7 C 82 % 4.83 C
657 09-02-2019 06:40:00 7.7 C 82 % 4.83 C
658 09-02-2019 06:45:00 7.7 C 83 % 5 C
659 09-02-2019 06:50:00 7.7 C 83 % 5 C
660 09-02-2019 06:55:00 7.8 C 83 % 5.1 C
661 09-02-2019 07:00:00 7.8 C 83 % 5.1 C
662 09-02-2019 07:05:00 7.8 C 84 % 5.27 C
663 09-02-2019 07:10:00 7.8 C 84 % 5.27 C
664 09-02-2019 07:15:00 7.7 C 85 % 5.34 C
665 09-02-2019 07:20:00 7.7 C 85 % 5.34 C
666 09-02-2019 07:25:00 7.5 C 86 % 5.31 C
667 09-02-2019 07:30:00 7.4 C 86 % 5.22 C
668 09-02-2019 07:35:00 7.3 C 86 % 5.12 C
669 09-02-2019 07:40:00 7.3 C 87 % 5.28 C
670 09-02-2019 07:45:00 7.2 C 87 % 5.19 C
671 09-02-2019 07:50:00 7.2 C 87 % 5.19 C
672 09-02-2019 07:55:00 7.2 C 87 % 5.19 C
673 09-02-2019 08:00:00 7.3 C 87 % 5.28 C
674 09-02-2019 08:05:00 7.4 C 86 % 5.22 C
675 09-02-2019 08:10:00 7.4 C 86 % 5.22 C
Sensor: Nr:Datum:Temp:Feuchte:Taupunkt:
Aussen-T/F 676 09-02-2019 08:15:00 7.4 C 86 % 5.22 C
677 09-02-2019 08:20:00 7.3 C 86 % 5.12 C
678 09-02-2019 08:25:00 7.3 C 87 % 5.28 C
679 09-02-2019 08:30:00 7.2 C 87 % 5.19 C
680 09-02-2019 08:35:00 7.1 C 87 % 5.09 C
681 09-02-2019 08:40:00 7 C 87 % 4.99 C
682 09-02-2019 08:45:00 7 C 87 % 4.99 C
683 09-02-2019 08:50:00 7.1 C 86 % 4.92 C
684 09-02-2019 08:55:00 7.2 C 85 % 4.85 C
685 09-02-2019 09:00:00 7.3 C 84 % 4.78 C
686 09-02-2019 09:05:00 7.3 C 84 % 4.78 C
687 09-02-2019 09:10:00 7.3 C 84 % 4.78 C
688 09-02-2019 09:15:00 7.3 C 83 % 4.61 C
689 09-02-2019 09:20:00 7.6 C 83 % 4.9 C
690 09-02-2019 09:25:00 7.6 C 83 % 4.9 C
691 09-02-2019 09:30:00 7.8 C 82 % 4.92 C
692 09-02-2019 09:35:00 7.9 C 81 % 4.85 C
693 09-02-2019 09:40:00 8.1 C 81 % 5.04 C
694 09-02-2019 09:45:00 8.1 C 81 % 5.04 C
695 09-02-2019 09:50:00 8.2 C 81 % 5.14 C
696 09-02-2019 09:55:00 8.3 C 81 % 5.24 C
697 09-02-2019 10:00:00 8.4 C 81 % 5.33 C
698 09-02-2019 10:05:00 8.6 C 80 % 5.35 C
699 09-02-2019 10:10:00 8.7 C 80 % 5.45 C
700 09-02-2019 10:15:00 8.8 C 79 % 5.36 C
Sensor: Nr:Datum:Temp:Feuchte:Taupunkt:
Aussen-T/F 701 09-02-2019 10:20:00 8.9 C 79 % 5.46 C
702 09-02-2019 10:25:00 8.9 C 79 % 5.46 C
703 09-02-2019 10:30:00 8.9 C 79 % 5.46 C
704 09-02-2019 10:35:00 9 C 79 % 5.56 C
705 09-02-2019 10:40:00 9 C 79 % 5.56 C
706 09-02-2019 10:45:00 9 C 79 % 5.56 C
707 09-02-2019 10:50:00 9 C 79 % 5.56 C
708 09-02-2019 10:55:00 9 C 79 % 5.56 C
709 09-02-2019 11:00:00 9.1 C 79 % 5.66 C
710 09-02-2019 11:05:00 9.1 C 79 % 5.66 C
711 09-02-2019 11:10:00 9.1 C 79 % 5.66 C
712 09-02-2019 11:15:00 9.2 C 79 % 5.75 C
713 09-02-2019 11:20:00 9.2 C 78 % 5.57 C
714 09-02-2019 11:25:00 9.2 C 78 % 5.57 C
715 09-02-2019 11:30:00 9.2 C 77 % 5.38 C
716 09-02-2019 11:35:00 9.3 C 77 % 5.48 C
717 09-02-2019 11:40:00 9.4 C 77 % 5.58 C
718 09-02-2019 11:45:00 9.6 C 77 % 5.77 C
719 09-02-2019 11:50:00 9.6 C 76 % 5.58 C
720 09-02-2019 11:55:00 9.7 C 76 % 5.68 C
721 09-02-2019 12:00:00 9.7 C 76 % 5.68 C
722 09-02-2019 12:05:00 9.7 C 76 % 5.68 C
723 09-02-2019 12:10:00 9.8 C 75 % 5.59 C
724 09-02-2019 12:15:00 9.8 C 75 % 5.59 C
725 09-02-2019 12:20:00 9.8 C 74 % 5.39 C
Sensor: Nr:Datum:Temp:Feuchte:Taupunkt:
Aussen-T/F 726 09-02-2019 12:25:00 9.9 C 74 % 5.49 C
727 09-02-2019 12:30:00 9.9 C 74 % 5.49 C
728 09-02-2019 12:35:00 10 C 74 % 5.59 C
729 09-02-2019 12:40:00 10.1 C 73 % 5.49 C
730 09-02-2019 12:45:00 10.2 C 73 % 5.58 C
731 09-02-2019 12:50:00 10.3 C 72 % 5.48 C
732 09-02-2019 12:55:00 10.5 C 71 % 5.47 C
733 09-02-2019 13:00:00 10.6 C 71 % 5.57 C
734 09-02-2019 13:05:00 10.6 C 70 % 5.36 C
735 09-02-2019 13:10:00 10.6 C 71 % 5.57 C
736 09-02-2019 13:15:00 10.6 C 72 % 5.77 C
737 09-02-2019 13:20:00 10.6 C 71 % 5.57 C
738 09-02-2019 13:25:00 10.7 C 72 % 5.87 C
739 09-02-2019 13:30:00 10.7 C 70 % 5.46 C
740 09-02-2019 13:35:00 10.8 C 69 % 5.35 C
741 09-02-2019 13:40:00 10.9 C 68 % 5.23 C
742 09-02-2019 13:45:00 10.9 C 69 % 5.44 C
743 09-02-2019 13:50:00 10.9 C 69 % 5.44 C
744 09-02-2019 13:55:00 10.9 C 69 % 5.44 C
745 09-02-2019 14:00:00 11 C 68 % 5.33 C
746 09-02-2019 14:05:00 11.1 C 68 % 5.43 C
747 09-02-2019 14:10:00 11.2 C 68 % 5.52 C
748 09-02-2019 14:15:00 11.2 C 67 % 5.31 C
749 09-02-2019 14:20:00 11.2 C 68 % 5.52 C
750 09-02-2019 14:25:00 11.2 C 68 % 5.52 C
Sensor: Nr:Datum:Temp:Feuchte:Taupunkt:
Aussen-T/F 751 09-02-2019 14:30:00 11.1 C 68 % 5.43 C
752 09-02-2019 14:35:00 11.1 C 67 % 5.21 C
753 09-02-2019 14:40:00 11.1 C 68 % 5.43 C
754 09-02-2019 14:45:00 11.1 C 68 % 5.43 C
755 09-02-2019 14:50:00 11.1 C 67 % 5.21 C
756 09-02-2019 14:55:00 11.1 C 67 % 5.21 C
757 09-02-2019 15:00:00 10.9 C 67 % 5.02 C
758 09-02-2019 15:05:00 10.9 C 67 % 5.02 C
759 09-02-2019 15:10:00 10.8 C 67 % 4.93 C
760 09-02-2019 15:15:00 10.7 C 67 % 4.83 C
761 09-02-2019 15:20:00 10.7 C 68 % 5.04 C
762 09-02-2019 15:25:00 10.6 C 69 % 5.16 C
763 09-02-2019 15:30:00 10.5 C 69 % 5.06 C
764 09-02-2019 15:35:00 10.5 C 69 % 5.06 C
765 09-02-2019 15:40:00 10.5 C 69 % 5.06 C
766 09-02-2019 15:45:00 10.4 C 69 % 4.97 C
767 09-02-2019 15:50:00 10.4 C 70 % 5.17 C
768 09-02-2019 15:55:00 10.4 C 70 % 5.17 C
769 09-02-2019 16:00:00 10.4 C 69 % 4.97 C
770 09-02-2019 16:05:00 10.4 C 70 % 5.17 C
771 09-02-2019 16:10:00 10.3 C 71 % 5.28 C
772 09-02-2019 16:15:00 10.2 C 72 % 5.39 C
773 09-02-2019 16:20:00 10.1 C 72 % 5.29 C
774 09-02-2019 16:25:00 10.1 C 72 % 5.29 C
775 09-02-2019 16:30:00 10 C 73 % 5.39 C
Sensor: Nr:Datum:Temp:Feuchte:Taupunkt:
Aussen-T/F 776 09-02-2019 16:35:00 9.9 C 73 % 5.29 C
777 09-02-2019 16:40:00 9.9 C 72 % 5.1 C
778 09-02-2019 16:45:00 9.9 C 73 % 5.29 C
779 09-02-2019 16:50:00 9.8 C 73 % 5.2 C
780 09-02-2019 16:55:00 9.8 C 73 % 5.2 C
781 09-02-2019 17:00:00 9.8 C 72 % 5 C
782 09-02-2019 17:05:00 9.7 C 72 % 4.9 C
783 09-02-2019 17:10:00 9.7 C 73 % 5.1 C
784 09-02-2019 17:15:00 9.6 C 74 % 5.2 C
785 09-02-2019 17:20:00 9.5 C 74 % 5.1 C
786 09-02-2019 17:25:00 9.4 C 74 % 5.01 C
787 09-02-2019 17:30:00 9.3 C 74 % 4.91 C
788 09-02-2019 17:35:00 9.3 C 74 % 4.91 C
789 09-02-2019 17:40:00 9.2 C 75 % 5.01 C
790 09-02-2019 17:45:00 9.1 C 75 % 4.91 C
791 09-02-2019 17:50:00 9 C 75 % 4.81 C
792 09-02-2019 17:55:00 8.9 C 76 % 4.91 C
793 09-02-2019 18:00:00 8.8 C 76 % 4.81 C
794 09-02-2019 18:05:00 8.8 C 77 % 5 C
795 09-02-2019 18:10:00 8.7 C 77 % 4.9 C
796 09-02-2019 18:15:00 8.6 C 78 % 4.99 C
797 09-02-2019 18:20:00 8.6 C 78 % 4.99 C
798 09-02-2019 18:25:00 8.5 C 78 % 4.89 C
799 09-02-2019 18:30:00 8.4 C 79 % 4.98 C
800 09-02-2019 18:35:00 8.4 C 79 % 4.98 C
Sensor: Nr:Datum:Temp:Feuchte:Taupunkt:
Aussen-T/F 801 09-02-2019 18:40:00 8.4 C 78 % 4.79 C
802 09-02-2019 18:45:00 8.4 C 79 % 4.98 C
803 09-02-2019 18:50:00 8.4 C 79 % 4.98 C
804 09-02-2019 18:55:00 8.5 C 80 % 5.25 C
805 09-02-2019 19:00:00 8.6 C 81 % 5.53 C
806 09-02-2019 19:05:00 8.4 C 84 % 5.86 C
807 09-02-2019 19:10:00 8.2 C 85 % 5.83 C
808 09-02-2019 19:15:00 8 C 86 % 5.81 C
809 09-02-2019 19:20:00 7.8 C 86 % 5.61 C
810 09-02-2019 19:25:00 7.7 C 86 % 5.51 C
811 09-02-2019 19:30:00 7.7 C 86 % 5.51 C
812 09-02-2019 19:35:00 7.6 C 86 % 5.41 C
813 09-02-2019 19:40:00 7.6 C 85 % 5.24 C
814 09-02-2019 19:45:00 7.6 C 84 % 5.07 C
815 09-02-2019 19:50:00 7.6 C 84 % 5.07 C
816 09-02-2019 19:55:00 7.6 C 84 % 5.07 C
817 09-02-2019 20:00:00 7.5 C 84 % 4.98 C
818 09-02-2019 20:05:00 7.4 C 84 % 4.88 C
819 09-02-2019 20:10:00 7.3 C 84 % 4.78 C
820 09-02-2019 20:15:00 7.2 C 85 % 4.85 C
821 09-02-2019 20:20:00 7.2 C 85 % 4.85 C
822 09-02-2019 20:25:00 7.1 C 86 % 4.92 C
823 09-02-2019 20:30:00 7.1 C 86 % 4.92 C
824 09-02-2019 20:35:00 7.2 C 87 % 5.19 C
825 09-02-2019 20:40:00 7.2 C 87 % 5.19 C
Sensor: Nr:Datum:Temp:Feuchte:Taupunkt:
Aussen-T/F 826 09-02-2019 20:45:00 7.2 C 87 % 5.19 C
827 09-02-2019 20:50:00 7.3 C 87 % 5.28 C
828 09-02-2019 20:55:00 7.3 C 87 % 5.28 C
829 09-02-2019 21:00:00 7.4 C 87 % 5.38 C
830 09-02-2019 21:05:00 7.5 C 86 % 5.31 C
831 09-02-2019 21:10:00 7.5 C 86 % 5.31 C
832 09-02-2019 21:15:00 7.5 C 86 % 5.31 C
833 09-02-2019 21:20:00 7.6 C 86 % 5.41 C
834 09-02-2019 21:25:00 7.6 C 86 % 5.41 C
835 09-02-2019 21:30:00 7.6 C 86 % 5.41 C
836 09-02-2019 21:35:00 7.6 C 86 % 5.41 C
837 09-02-2019 21:40:00 7.7 C 86 % 5.51 C
838 09-02-2019 21:45:00 7.7 C 86 % 5.51 C
839 09-02-2019 21:50:00 7.8 C 85 % 5.44 C
840 09-02-2019 21:55:00 7.8 C 85 % 5.44 C
841 09-02-2019 22:00:00 7.9 C 85 % 5.54 C
842 09-02-2019 22:05:00 7.9 C 85 % 5.54 C
843 09-02-2019 22:10:00 7.9 C 85 % 5.54 C
844 09-02-2019 22:15:00 8.1 C 84 % 5.56 C
845 09-02-2019 22:20:00 8.1 C 84 % 5.56 C
846 09-02-2019 22:25:00 8.1 C 84 % 5.56 C
847 09-02-2019 22:30:00 8.2 C 84 % 5.66 C
848 09-02-2019 22:35:00 8.3 C 83 % 5.59 C
849 09-02-2019 22:40:00 8.3 C 83 % 5.59 C
850 09-02-2019 22:45:00 8.3 C 83 % 5.59 C
Sensor: Nr:Datum:Temp:Feuchte:Taupunkt:
Aussen-T/F 851 09-02-2019 22:50:00 8.4 C 83 % 5.69 C
852 09-02-2019 22:55:00 8.4 C 82 % 5.51 C
853 09-02-2019 23:00:00 8.6 C 82 % 5.71 C
854 09-02-2019 23:05:00 8.6 C 82 % 5.71 C
855 09-02-2019 23:10:00 8.6 C 82 % 5.71 C
856 09-02-2019 23:15:00 8.6 C 82 % 5.71 C
857 09-02-2019 23:20:00 8.6 C 82 % 5.71 C
858 09-02-2019 23:25:00 8.6 C 82 % 5.71 C
859 09-02-2019 23:30:00 8.6 C 82 % 5.71 C
860 09-02-2019 23:35:00 8.6 C 82 % 5.71 C
861 09-02-2019 23:40:00 8.6 C 82 % 5.71 C
862 09-02-2019 23:45:00 8.7 C 82 % 5.8 C
863 09-02-2019 23:50:00 8.7 C 82 % 5.8 C
864 09-02-2019 23:55:00 8.7 C 82 % 5.8 C
865 10-02-2019 00:00:00 8.7 C 82 % 5.8 C
866 10-02-2019 00:05:00 8.7 C 82 % 5.8 C
867 10-02-2019 00:10:00 8.7 C 82 % 5.8 C
868 10-02-2019 00:15:00 8.7 C 82 % 5.8 C
869 10-02-2019 00:20:00 8.7 C 82 % 5.8 C
870 10-02-2019 00:25:00 8.7 C 82 % 5.8 C
871 10-02-2019 00:30:00 8.7 C 82 % 5.8 C
872 10-02-2019 00:35:00 8.6 C 82 % 5.71 C
873 10-02-2019 00:40:00 8.6 C 82 % 5.71 C
874 10-02-2019 00:45:00 8.5 C 82 % 5.61 C
875 10-02-2019 00:50:00 8.4 C 82 % 5.51 C
Sensor: Nr:Datum:Temp:Feuchte:Taupunkt:
Aussen-T/F 876 10-02-2019 00:55:00 8.4 C 82 % 5.51 C
877 10-02-2019 01:00:00 8.3 C 83 % 5.59 C
878 10-02-2019 01:05:00 8.2 C 83 % 5.49 C
879 10-02-2019 01:10:00 8.1 C 83 % 5.39 C
880 10-02-2019 01:15:00 8.1 C 83 % 5.39 C
881 10-02-2019 01:20:00 7.9 C 83 % 5.2 C
882 10-02-2019 01:25:00 7.9 C 84 % 5.37 C
883 10-02-2019 01:30:00 7.8 C 84 % 5.27 C
884 10-02-2019 01:35:00 7.7 C 84 % 5.17 C
885 10-02-2019 01:40:00 7.6 C 85 % 5.24 C
886 10-02-2019 01:45:00 7.5 C 85 % 5.15 C
887 10-02-2019 01:50:00 7.6 C 85 % 5.24 C
888 10-02-2019 01:55:00 7.5 C 85 % 5.15 C
889 10-02-2019 02:00:00 7.4 C 85 % 5.05 C
890 10-02-2019 02:05:00 7.4 C 85 % 5.05 C
891 10-02-2019 02:10:00 7.4 C 85 % 5.05 C
892 10-02-2019 02:15:00 7.3 C 85 % 4.95 C
893 10-02-2019 02:20:00 7.3 C 85 % 4.95 C
894 10-02-2019 02:25:00 7.3 C 85 % 4.95 C
895 10-02-2019 02:30:00 7.4 C 85 % 5.05 C
896 10-02-2019 02:35:00 7.4 C 85 % 5.05 C
897 10-02-2019 02:40:00 7.5 C 84 % 4.98 C
898 10-02-2019 02:45:00 7.6 C 84 % 5.07 C
899 10-02-2019 02:50:00 7.5 C 84 % 4.98 C
900 10-02-2019 02:55:00 7.5 C 84 % 4.98 C
Sensor: Nr:Datum:Temp:Feuchte:Taupunkt:
Aussen-T/F 901 10-02-2019 03:00:00 7.5 C 84 % 4.98 C
902 10-02-2019 03:05:00 7.4 C 84 % 4.88 C
903 10-02-2019 03:10:00 7.6 C 84 % 5.07 C
904 10-02-2019 03:15:00 7.7 C 83 % 5 C
905 10-02-2019 03:20:00 7.7 C 83 % 5 C
906 10-02-2019 03:25:00 7.7 C 83 % 5 C
907 10-02-2019 03:30:00 7.6 C 83 % 4.9 C
908 10-02-2019 03:35:00 7.6 C 84 % 5.07 C
909 10-02-2019 03:40:00 7.7 C 84 % 5.17 C
910 10-02-2019 03:45:00 7.7 C 85 % 5.34 C
911 10-02-2019 03:50:00 7.6 C 86 % 5.41 C
912 10-02-2019 03:55:00 7.5 C 87 % 5.48 C
913 10-02-2019 04:00:00 7.4 C 88 % 5.55 C
914 10-02-2019 04:05:00 7.3 C 89 % 5.61 C
915 10-02-2019 04:10:00 7.2 C 90 % 5.67 C
916 10-02-2019 04:15:00 7.1 C 90 % 5.57 C
917 10-02-2019 04:20:00 6.9 C 90 % 5.38 C
918 10-02-2019 04:25:00 6.9 C 90 % 5.38 C
919 10-02-2019 04:30:00 6.9 C 90 % 5.38 C
920 10-02-2019 04:35:00 6.9 C 91 % 5.54 C
921 10-02-2019 04:40:00 6.8 C 91 % 5.44 C
922 10-02-2019 04:45:00 6.8 C 92 % 5.59 C
923 10-02-2019 04:50:00 6.8 C 92 % 5.59 C
924 10-02-2019 04:55:00 6.8 C 92 % 5.59 C
925 10-02-2019 05:00:00 6.8 C 93 % 5.75 C
Sensor: Nr:Datum:Temp:Feuchte:Taupunkt:
Aussen-T/F 926 10-02-2019 05:05:00 6.8 C 93 % 5.75 C
927 10-02-2019 05:10:00 6.8 C 93 % 5.75 C
928 10-02-2019 05:15:00 6.8 C 93 % 5.75 C
929 10-02-2019 05:20:00 6.8 C 94 % 5.9 C
930 10-02-2019 05:25:00 6.9 C 94 % 6 C
931 10-02-2019 05:30:00 6.9 C 94 % 6 C
932 10-02-2019 05:35:00 7 C 94 % 6.1 C
933 10-02-2019 05:40:00 7.1 C 94 % 6.2 C
934 10-02-2019 05:45:00 7.1 C 94 % 6.2 C
935 10-02-2019 05:50:00 7.2 C 94 % 6.3 C
936 10-02-2019 05:55:00 7.3 C 94 % 6.4 C
937 10-02-2019 06:00:00 7.3 C 94 % 6.4 C
938 10-02-2019 06:05:00 7.3 C 94 % 6.4 C
939 10-02-2019 06:10:00 7.3 C 94 % 6.4 C
940 10-02-2019 06:15:00 7.4 C 94 % 6.5 C
941 10-02-2019 06:20:00 7.5 C 94 % 6.6 C
942 10-02-2019 06:25:00 7.6 C 94 % 6.7 C
943 10-02-2019 06:30:00 7.7 C 94 % 6.8 C
944 10-02-2019 06:35:00 7.7 C 94 % 6.8 C
945 10-02-2019 06:40:00 7.8 C 94 % 6.9 C
946 10-02-2019 06:45:00 7.9 C 94 % 7 C
947 10-02-2019 06:50:00 7.9 C 94 % 7 C
948 10-02-2019 06:55:00 8.1 C 94 % 7.19 C
949 10-02-2019 07:00:00 8.1 C 94 % 7.19 C
950 10-02-2019 07:05:00 8.1 C 94 % 7.19 C
Sensor: Nr:Datum:Temp:Feuchte:Taupunkt:
Aussen-T/F 951 10-02-2019 07:10:00 8.2 C 94 % 7.29 C
952 10-02-2019 07:15:00 8.2 C 94 % 7.29 C
953 10-02-2019 07:20:00 8.3 C 93 % 7.24 C
954 10-02-2019 07:25:00 8.4 C 93 % 7.34 C
955 10-02-2019 07:30:00 8.4 C 93 % 7.34 C
956 10-02-2019 07:35:00 8.5 C 93 % 7.43 C
957 10-02-2019 07:40:00 8.5 C 93 % 7.43 C
958 10-02-2019 07:45:00 8.6 C 93 % 7.53 C
959 10-02-2019 07:50:00 8.6 C 93 % 7.53 C
960 10-02-2019 07:55:00 8.7 C 93 % 7.63 C
961 10-02-2019 08:00:00 8.7 C 92 % 7.47 C
962 10-02-2019 08:05:00 8.7 C 92 % 7.47 C
963 10-02-2019 08:10:00 8.7 C 92 % 7.47 C
964 10-02-2019 08:15:00 8.8 C 92 % 7.57 C
965 10-02-2019 08:20:00 8.8 C 92 % 7.57 C
966 10-02-2019 08:25:00 8.8 C 92 % 7.57 C
967 10-02-2019 08:30:00 8.8 C 92 % 7.57 C
968 10-02-2019 08:35:00 8.8 C 92 % 7.57 C
969 10-02-2019 08:40:00 8.8 C 92 % 7.57 C
970 10-02-2019 08:45:00 8.8 C 91 % 7.41 C
971 10-02-2019 08:50:00 8.9 C 91 % 7.51 C
972 10-02-2019 08:55:00 8.9 C 91 % 7.51 C
973 10-02-2019 09:00:00 9 C 91 % 7.61 C
974 10-02-2019 09:05:00 9.1 C 90 % 7.55 C
975 10-02-2019 09:10:00 9.2 C 90 % 7.65 C
Sensor: Nr:Datum:Temp:Feuchte:Taupunkt:
Aussen-T/F 976 10-02-2019 09:15:00 9.3 C 90 % 7.75 C
977 10-02-2019 09:20:00 9.3 C 89 % 7.58 C
978 10-02-2019 09:25:00 9.4 C 89 % 7.68 C
979 10-02-2019 09:30:00 9.6 C 89 % 7.88 C
980 10-02-2019 09:35:00 9.7 C 89 % 7.98 C
981 10-02-2019 09:40:00 9.7 C 88 % 7.81 C
982 10-02-2019 09:45:00 9.8 C 88 % 7.91 C
983 10-02-2019 09:50:00 9.9 C 88 % 8.01 C
984 10-02-2019 09:55:00 9.9 C 88 % 8.01 C
985 10-02-2019 10:00:00 10 C 88 % 8.11 C
986 10-02-2019 10:05:00 10.1 C 88 % 8.21 C
987 10-02-2019 10:10:00 10.1 C 88 % 8.21 C
988 10-02-2019 10:15:00 10.1 C 88 % 8.21 C
989 10-02-2019 10:20:00 10.2 C 88 % 8.3 C
990 10-02-2019 10:25:00 10.2 C 88 % 8.3 C
991 10-02-2019 10:30:00 10.2 C 88 % 8.3 C
992 10-02-2019 10:35:00 10.2 C 89 % 8.47 C
993 10-02-2019 10:40:00 10 C 89 % 8.27 C
994 10-02-2019 10:45:00 9.9 C 90 % 8.34 C
995 10-02-2019 10:50:00 9.9 C 90 % 8.34 C
996 10-02-2019 10:55:00 9.8 C 90 % 8.24 C
997 10-02-2019 11:00:00 9.8 C 90 % 8.24 C
998 10-02-2019 11:05:00 9.8 C 90 % 8.24 C
999 10-02-2019 11:10:00 9.8 C 90 % 8.24 C
1000 10-02-2019 11:15:00 9.7 C 90 % 8.14 C
Sensor: Nr:Datum:Temp:Feuchte:Taupunkt:
Aussen-T/F 1001 10-02-2019 11:20:00 9.7 C 91 % 8.3 C
1002 10-02-2019 11:25:00 9.7 C 91 % 8.3 C
1003 10-02-2019 11:30:00 9.7 C 91 % 8.3 C
1004 10-02-2019 11:35:00 9.7 C 91 % 8.3 C
1005 10-02-2019 11:40:00 9.7 C 91 % 8.3 C
1006 10-02-2019 11:45:00 9.7 C 91 % 8.3 C
1007 10-02-2019 11:50:00 9.7 C 91 % 8.3 C
1008 10-02-2019 11:55:00 9.7 C 92 % 8.46 C
1009 10-02-2019 12:00:00 9.7 C 92 % 8.46 C
1010 10-02-2019 12:05:00 9.7 C 91 % 8.3 C
1011 10-02-2019 12:10:00 9.7 C 91 % 8.3 C
1012 10-02-2019 12:15:00 9.7 C 92 % 8.46 C
1013 10-02-2019 12:20:00 9.7 C 92 % 8.46 C
1014 10-02-2019 12:25:00 9.7 C 92 % 8.46 C
1015 10-02-2019 12:30:00 9.7 C 92 % 8.46 C
1016 10-02-2019 12:35:00 9.6 C 92 % 8.37 C
1017 10-02-2019 12:40:00 9.6 C 92 % 8.37 C
1018 10-02-2019 12:45:00 9.6 C 92 % 8.37 C
1019 10-02-2019 12:50:00 9.6 C 91 % 8.21 C
1020 10-02-2019 12:55:00 9.6 C 91 % 8.21 C
1021 10-02-2019 13:00:00 9.6 C 91 % 8.21 C
1022 10-02-2019 13:05:00 9.6 C 92 % 8.37 C
1023 10-02-2019 13:10:00 9.6 C 92 % 8.37 C
1024 10-02-2019 13:15:00 9.6 C 92 % 8.37 C
1025 10-02-2019 13:20:00 9.6 C 92 % 8.37 C
Sensor: Nr:Datum:Temp:Feuchte:Taupunkt:
Aussen-T/F 1026 10-02-2019 13:25:00 9.7 C 93 % 8.62 C
1027 10-02-2019 13:30:00 9.8 C 92 % 8.56 C
1028 10-02-2019 13:35:00 9.9 C 92 % 8.66 C
1029 10-02-2019 13:40:00 9.9 C 92 % 8.66 C
1030 10-02-2019 13:45:00 10 C 91 % 8.6 C
1031 10-02-2019 13:50:00 10 C 91 % 8.6 C
1032 10-02-2019 13:55:00 10 C 91 % 8.6 C
1033 10-02-2019 14:00:00 9.9 C 91 % 8.5 C
1034 10-02-2019 14:05:00 9.9 C 91 % 8.5 C
1035 10-02-2019 14:10:00 9.8 C 92 % 8.56 C
1036 10-02-2019 14:15:00 9.8 C 92 % 8.56 C
1037 10-02-2019 14:20:00 9.7 C 92 % 8.46 C
1038 10-02-2019 14:25:00 9.6 C 91 % 8.21 C
1039 10-02-2019 14:30:00 9.4 C 91 % 8.01 C
1040 10-02-2019 14:35:00 9.3 C 91 % 7.91 C
1041 10-02-2019 14:40:00 9.2 C 90 % 7.65 C
1042 10-02-2019 14:45:00 9.1 C 89 % 7.39 C
1043 10-02-2019 14:50:00 8.9 C 88 % 7.02 C
1044 10-02-2019 14:55:00 8.9 C 88 % 7.02 C
1045 10-02-2019 15:00:00 9 C 88 % 7.12 C
1046 10-02-2019 15:05:00 8.9 C 87 % 6.86 C
1047 10-02-2019 15:10:00 8.8 C 86 % 6.59 C
1048 10-02-2019 15:15:00 8.8 C 86 % 6.59 C
1049 10-02-2019 15:20:00 8.8 C 87 % 6.76 C
1050 10-02-2019 15:25:00 8.7 C 87 % 6.66 C
Sensor: Nr:Datum:Temp:Feuchte:Taupunkt:
Aussen-T/F 1051 10-02-2019 15:30:00 8.7 C 86 % 6.49 C
1052 10-02-2019 15:35:00 8.7 C 86 % 6.49 C
1053 10-02-2019 15:40:00 8.7 C 86 % 6.49 C
1054 10-02-2019 15:45:00 8.7 C 87 % 6.66 C
1055 10-02-2019 15:50:00 8.8 C 87 % 6.76 C
1056 10-02-2019 15:55:00 8.8 C 86 % 6.59 C
1057 10-02-2019 16:00:00 8.7 C 86 % 6.49 C
1058 10-02-2019 16:05:00 8.7 C 86 % 6.49 C
1059 10-02-2019 16:10:00 8.7 C 87 % 6.66 C
1060 10-02-2019 16:15:00 8.6 C 88 % 6.73 C
1061 10-02-2019 16:20:00 8.4 C 87 % 6.37 C
1062 10-02-2019 16:25:00 8.4 C 87 % 6.37 C
1063 10-02-2019 16:30:00 8.4 C 87 % 6.37 C
1064 10-02-2019 16:35:00 8.4 C 87 % 6.37 C
1065 10-02-2019 16:40:00 8.4 C 87 % 6.37 C
1066 10-02-2019 16:45:00 8.4 C 87 % 6.37 C
1067 10-02-2019 16:50:00 8.4 C 87 % 6.37 C
1068 10-02-2019 16:55:00 8.3 C 86 % 6.1 C
1069 10-02-2019 17:00:00 8.3 C 87 % 6.27 C
1070 10-02-2019 17:05:00 8.2 C 87 % 6.17 C
1071 10-02-2019 17:10:00 8.2 C 87 % 6.17 C
1072 10-02-2019 17:15:00 8.1 C 86 % 5.9 C
1073 10-02-2019 17:20:00 8.1 C 86 % 5.9 C
1074 10-02-2019 17:25:00 8.1 C 87 % 6.07 C
1075 10-02-2019 17:30:00 8 C 86 % 5.81 C
Sensor: Nr:Datum:Temp:Feuchte:Taupunkt:
Aussen-T/F 1076 10-02-2019 17:35:00 7.9 C 86 % 5.71 C
1077 10-02-2019 17:40:00 7.9 C 85 % 5.54 C
1078 10-02-2019 17:45:00 7.8 C 86 % 5.61 C
1079 10-02-2019 17:50:00 7.5 C 86 % 5.31 C
1080 10-02-2019 17:55:00 7.3 C 87 % 5.28 C
1081 10-02-2019 18:00:00 7 C 89 % 5.31 C
1082 10-02-2019 18:05:00 6.8 C 89 % 5.12 C
1083 10-02-2019 18:10:00 6.7 C 90 % 5.18 C
1084 10-02-2019 18:15:00 6.6 C 90 % 5.08 C
1085 10-02-2019 18:20:00 6.4 C 90 % 4.88 C
1086 10-02-2019 18:25:00 6.4 C 91 % 5.04 C
1087 10-02-2019 18:30:00 6.3 C 91 % 4.94 C
1088 10-02-2019 18:35:00 6.3 C 91 % 4.94 C
1089 10-02-2019 18:40:00 6.3 C 90 % 4.78 C
1090 10-02-2019 18:45:00 6.3 C 90 % 4.78 C
1091 10-02-2019 18:50:00 6.3 C 90 % 4.78 C
1092 10-02-2019 18:55:00 6.3 C 90 % 4.78 C
1093 10-02-2019 19:00:00 6.3 C 90 % 4.78 C
1094 10-02-2019 19:05:00 6.3 C 89 % 4.62 C
1095 10-02-2019 19:10:00 6.3 C 89 % 4.62 C
1096 10-02-2019 19:15:00 6.4 C 88 % 4.56 C
1097 10-02-2019 19:20:00 6.4 C 88 % 4.56 C
1098 10-02-2019 19:25:00 6.4 C 88 % 4.56 C
1099 10-02-2019 19:30:00 6.4 C 88 % 4.56 C
1100 10-02-2019 19:35:00 6.4 C 88 % 4.56 C
Sensor: Nr:Datum:Temp:Feuchte:Taupunkt:
Aussen-T/F 1101 10-02-2019 19:40:00 6.4 C 88 % 4.56 C
1102 10-02-2019 19:45:00 6.5 C 88 % 4.66 C
1103 10-02-2019 19:50:00 6.6 C 88 % 4.76 C
1104 10-02-2019 19:55:00 6.6 C 87 % 4.6 C
1105 10-02-2019 20:00:00 6.6 C 87 % 4.6 C
1106 10-02-2019 20:05:00 6.7 C 87 % 4.69 C
1107 10-02-2019 20:10:00 6.7 C 87 % 4.69 C
1108 10-02-2019 20:15:00 6.7 C 87 % 4.69 C
1109 10-02-2019 20:20:00 6.8 C 87 % 4.79 C
1110 10-02-2019 20:25:00 6.8 C 87 % 4.79 C
1111 10-02-2019 20:30:00 6.8 C 87 % 4.79 C
1112 10-02-2019 20:35:00 6.8 C 87 % 4.79 C
1113 10-02-2019 20:40:00 6.8 C 88 % 4.96 C
1114 10-02-2019 20:45:00 6.7 C 89 % 5.02 C
1115 10-02-2019 20:50:00 6.5 C 89 % 4.82 C
1116 10-02-2019 20:55:00 6.3 C 90 % 4.78 C
1117 10-02-2019 21:00:00 6.2 C 91 % 4.84 C
1118 10-02-2019 21:05:00 6.1 C 91 % 4.74 C
1119 10-02-2019 21:10:00 6.1 C 90 % 4.59 C
1120 10-02-2019 21:15:00 6.1 C 90 % 4.59 C
1121 10-02-2019 21:20:00 6.1 C 89 % 4.43 C
1122 10-02-2019 21:25:00 6.1 C 90 % 4.59 C
1123 10-02-2019 21:30:00 6.1 C 89 % 4.43 C
1124 10-02-2019 21:35:00 6.1 C 88 % 4.27 C
1125 10-02-2019 21:40:00 6.2 C 87 % 4.2 C
Sensor: Nr:Datum:Temp:Feuchte:Taupunkt:
Aussen-T/F 1126 10-02-2019 21:45:00 6.2 C 86 % 4.04 C
1127 10-02-2019 21:50:00 6.2 C 86 % 4.04 C
1128 10-02-2019 21:55:00 6.2 C 86 % 4.04 C
1129 10-02-2019 22:00:00 6.2 C 85 % 3.87 C
1130 10-02-2019 22:05:00 6.2 C 84 % 3.7 C
1131 10-02-2019 22:10:00 6.3 C 84 % 3.8 C
1132 10-02-2019 22:15:00 6.3 C 83 % 3.63 C
1133 10-02-2019 22:20:00 6.2 C 83 % 3.53 C
1134 10-02-2019 22:25:00 6.2 C 84 % 3.7 C
1135 10-02-2019 22:30:00 6.2 C 84 % 3.7 C
1136 10-02-2019 22:35:00 6.1 C 84 % 3.61 C
1137 10-02-2019 22:40:00 6.1 C 84 % 3.61 C
1138 10-02-2019 22:45:00 6 C 84 % 3.51 C
1139 10-02-2019 22:50:00 6 C 84 % 3.51 C
1140 10-02-2019 22:55:00 5.9 C 83 % 3.24 C
1141 10-02-2019 23:00:00 5.9 C 84 % 3.41 C
1142 10-02-2019 23:05:00 5.8 C 84 % 3.31 C
1143 10-02-2019 23:10:00 5.8 C 85 % 3.48 C
1144 10-02-2019 23:15:00 5.7 C 85 % 3.38 C
1145 10-02-2019 23:20:00 5.7 C 85 % 3.38 C
1146 10-02-2019 23:25:00 5.6 C 85 % 3.28 C
1147 10-02-2019 23:30:00 5.6 C 85 % 3.28 C
1148 10-02-2019 23:35:00 5.5 C 86 % 3.35 C
1149 10-02-2019 23:40:00 5.4 C 86 % 3.25 C
1150 10-02-2019 23:45:00 5.4 C 86 % 3.25 C
Sensor: Nr:Datum:Temp:Feuchte:Taupunkt:
Aussen-T/F 1151 10-02-2019 23:50:00 5.3 C 87 % 3.32 C
1152 10-02-2019 23:55:00 5.3 C 87 % 3.32 C
1153 11-02-2019 00:00:00 5.3 C 87 % 3.32 C
1154 11-02-2019 00:05:00 5.2 C 88 % 3.38 C
1155 11-02-2019 00:10:00 5.1 C 88 % 3.28 C
1156 11-02-2019 00:15:00 5.1 C 88 % 3.28 C
1157 11-02-2019 00:20:00 5.1 C 89 % 3.44 C
1158 11-02-2019 00:25:00 5 C 89 % 3.34 C
1159 11-02-2019 00:30:00 4.9 C 89 % 3.24 C
1160 11-02-2019 00:35:00 4.9 C 89 % 3.24 C
1161 11-02-2019 00:40:00 4.9 C 90 % 3.4 C
1162 11-02-2019 00:45:00 4.8 C 90 % 3.3 C
1163 11-02-2019 00:50:00 4.7 C 90 % 3.2 C
1164 11-02-2019 00:55:00 4.6 C 91 % 3.26 C
1165 11-02-2019 01:00:00 4.6 C 91 % 3.26 C
1166 11-02-2019 01:05:00 4.4 C 91 % 3.06 C
1167 11-02-2019 01:10:00 4.4 C 92 % 3.22 C
1168 11-02-2019 01:15:00 4.3 C 92 % 3.12 C
1169 11-02-2019 01:20:00 4.3 C 92 % 3.12 C
1170 11-02-2019 01:25:00 4.3 C 93 % 3.27 C
1171 11-02-2019 01:30:00 4.3 C 93 % 3.27 C
1172 11-02-2019 01:35:00 4.2 C 93 % 3.17 C
1173 11-02-2019 01:40:00 4.2 C 93 % 3.17 C
1174 11-02-2019 01:45:00 4.2 C 93 % 3.17 C
1175 11-02-2019 01:50:00 4.2 C 93 % 3.17 C
Sensor: Nr:Datum:Temp:Feuchte:Taupunkt:
Aussen-T/F 1176 11-02-2019 01:55:00 4.2 C 93 % 3.17 C
1177 11-02-2019 02:00:00 4.2 C 93 % 3.17 C
1178 11-02-2019 02:05:00 4.2 C 93 % 3.17 C
1179 11-02-2019 02:10:00 4.1 C 93 % 3.07 C
1180 11-02-2019 02:15:00 4 C 93 % 2.97 C
1181 11-02-2019 02:20:00 3.9 C 93 % 2.87 C
1182 11-02-2019 02:25:00 3.9 C 93 % 2.87 C
1183 11-02-2019 02:30:00 3.9 C 93 % 2.87 C
1184 11-02-2019 02:35:00 3.8 C 93 % 2.77 C
1185 11-02-2019 02:40:00 3.8 C 93 % 2.77 C
1186 11-02-2019 02:45:00 3.8 C 94 % 2.93 C
1187 11-02-2019 02:50:00 3.8 C 94 % 2.93 C
1188 11-02-2019 02:55:00 3.8 C 94 % 2.93 C
1189 11-02-2019 03:00:00 3.9 C 94 % 3.02 C
1190 11-02-2019 03:05:00 3.9 C 94 % 3.02 C
1191 11-02-2019 03:10:00 3.9 C 94 % 3.02 C
1192 11-02-2019 03:15:00 4 C 94 % 3.12 C
1193 11-02-2019 03:20:00 4.1 C 94 % 3.22 C
1194 11-02-2019 03:25:00 4 C 93 % 2.97 C
1195 11-02-2019 03:30:00 3.9 C 93 % 2.87 C
1196 11-02-2019 03:35:00 3.7 C 92 % 2.52 C
1197 11-02-2019 03:40:00 3.6 C 93 % 2.58 C
1198 11-02-2019 03:45:00 3.6 C 93 % 2.58 C
1199 11-02-2019 03:50:00 3.5 C 93 % 2.48 C
1200 11-02-2019 03:55:00 3.5 C 93 % 2.48 C
Sensor: Nr:Datum:Temp:Feuchte:Taupunkt:
Aussen-T/F 1201 11-02-2019 04:00:00 3.5 C 93 % 2.48 C
1202 11-02-2019 04:05:00 3.5 C 93 % 2.48 C
1203 11-02-2019 04:10:00 3.6 C 93 % 2.58 C
1204 11-02-2019 04:15:00 3.6 C 94 % 2.73 C
1205 11-02-2019 04:20:00 3.6 C 94 % 2.73 C
1206 11-02-2019 04:25:00 3.6 C 94 % 2.73 C
1207 11-02-2019 04:30:00 3.6 C 94 % 2.73 C
1208 11-02-2019 04:35:00 3.6 C 94 % 2.73 C
1209 11-02-2019 04:40:00 3.6 C 94 % 2.73 C
1210 11-02-2019 04:45:00 3.7 C 94 % 2.83 C
1211 11-02-2019 04:50:00 3.7 C 94 % 2.83 C
1212 11-02-2019 04:55:00 3.7 C 94 % 2.83 C
1213 11-02-2019 05:00:00 3.8 C 94 % 2.93 C
1214 11-02-2019 05:05:00 3.8 C 94 % 2.93 C
1215 11-02-2019 05:10:00 3.8 C 94 % 2.93 C
1216 11-02-2019 05:15:00 3.9 C 94 % 3.02 C
1217 11-02-2019 05:20:00 3.9 C 94 % 3.02 C
1218 11-02-2019 05:25:00 3.9 C 94 % 3.02 C
1219 11-02-2019 05:30:00 3.9 C 94 % 3.02 C
1220 11-02-2019 05:35:00 3.9 C 94 % 3.02 C
1221 11-02-2019 05:40:00 3.9 C 94 % 3.02 C
1222 11-02-2019 05:45:00 3.8 C 94 % 2.93 C
1223 11-02-2019 05:50:00 3.8 C 94 % 2.93 C
1224 11-02-2019 05:55:00 3.8 C 94 % 2.93 C
1225 11-02-2019 06:00:00 3.8 C 94 % 2.93 C
Sensor: Nr:Datum:Temp:Feuchte:Taupunkt:
Aussen-T/F 1226 11-02-2019 06:05:00 3.8 C 94 % 2.93 C
1227 11-02-2019 06:10:00 3.8 C 94 % 2.93 C
1228 11-02-2019 06:15:00 3.8 C 94 % 2.93 C
1229 11-02-2019 06:20:00 3.8 C 94 % 2.93 C
1230 11-02-2019 06:25:00 3.8 C 94 % 2.93 C
1231 11-02-2019 06:30:00 3.8 C 94 % 2.93 C
1232 11-02-2019 06:35:00 3.8 C 94 % 2.93 C
1233 11-02-2019 06:40:00 3.8 C 94 % 2.93 C
1234 11-02-2019 06:45:00 3.9 C 94 % 3.02 C
1235 11-02-2019 06:50:00 3.9 C 94 % 3.02 C
1236 11-02-2019 06:55:00 3.9 C 94 % 3.02 C
1237 11-02-2019 07:00:00 3.9 C 94 % 3.02 C
1238 11-02-2019 07:05:00 3.9 C 94 % 3.02 C
1239 11-02-2019 07:10:00 4 C 94 % 3.12 C
1240 11-02-2019 07:15:00 4 C 93 % 2.97 C
1241 11-02-2019 07:20:00 4.1 C 93 % 3.07 C
1242 11-02-2019 07:25:00 4.1 C 93 % 3.07 C
1243 11-02-2019 07:30:00 4.1 C 93 % 3.07 C
1244 11-02-2019 07:35:00 4.1 C 92 % 2.92 C
1245 11-02-2019 07:40:00 4.1 C 92 % 2.92 C
1246 11-02-2019 07:45:00 4.1 C 92 % 2.92 C
1247 11-02-2019 07:50:00 4.2 C 92 % 3.02 C
1248 11-02-2019 07:55:00 4.2 C 91 % 2.87 C
1249 11-02-2019 08:00:00 4.2 C 91 % 2.87 C
1250 11-02-2019 08:05:00 4.2 C 91 % 2.87 C
Sensor: Nr:Datum:Temp:Feuchte:Taupunkt:
Aussen-T/F 1251 11-02-2019 08:10:00 4.2 C 91 % 2.87 C
1252 11-02-2019 08:15:00 4.1 C 91 % 2.77 C
1253 11-02-2019 08:20:00 4.1 C 91 % 2.77 C
1254 11-02-2019 08:25:00 4 C 91 % 2.67 C
1255 11-02-2019 08:30:00 4 C 91 % 2.67 C
1256 11-02-2019 08:35:00 4 C 91 % 2.67 C
1257 11-02-2019 08:40:00 4 C 91 % 2.67 C
1258 11-02-2019 08:45:00 4.1 C 91 % 2.77 C
1259 11-02-2019 08:50:00 4.1 C 91 % 2.77 C
1260 11-02-2019 08:55:00 4.1 C 91 % 2.77 C
1261 11-02-2019 09:00:00 4.1 C 91 % 2.77 C
1262 11-02-2019 09:05:00 4.1 C 91 % 2.77 C
1263 11-02-2019 09:10:00 4.1 C 91 % 2.77 C
1264 11-02-2019 09:15:00 4.1 C 90 % 2.61 C
1265 11-02-2019 09:20:00 4.1 C 90 % 2.61 C
1266 11-02-2019 09:25:00 4.2 C 90 % 2.71 C
1267 11-02-2019 09:30:00 4.2 C 90 % 2.71 C
1268 11-02-2019 09:35:00 4.2 C 90 % 2.71 C
1269 11-02-2019 09:40:00 4.3 C 90 % 2.81 C
1270 11-02-2019 09:45:00 4.3 C 89 % 2.65 C
1271 11-02-2019 09:50:00 4.4 C 89 % 2.75 C
1272 11-02-2019 09:55:00 4.4 C 88 % 2.59 C
1273 11-02-2019 10:00:00 4.5 C 88 % 2.69 C
1274 11-02-2019 10:05:00 4.6 C 88 % 2.79 C
1275 11-02-2019 10:10:00 4.7 C 88 % 2.89 C
Sensor: Nr:Datum:Temp:Feuchte:Taupunkt:
Aussen-T/F 1276 11-02-2019 10:15:00 4.8 C 88 % 2.99 C
1277 11-02-2019 10:20:00 4.9 C 88 % 3.08 C
1278 11-02-2019 10:25:00 5 C 87 % 3.02 C
1279 11-02-2019 10:30:00 5.1 C 86 % 2.96 C
1280 11-02-2019 10:35:00 5.2 C 85 % 2.89 C
1281 11-02-2019 10:40:00 5.2 C 84 % 2.72 C
1282 11-02-2019 10:45:00 5.2 C 84 % 2.72 C
1283 11-02-2019 10:50:00 5.3 C 85 % 2.99 C
1284 11-02-2019 10:55:00 5.3 C 85 % 2.99 C
1285 11-02-2019 11:00:00 5.5 C 85 % 3.18 C
1286 11-02-2019 11:05:00 5.7 C 84 % 3.21 C
1287 11-02-2019 11:10:00 5.7 C 83 % 3.04 C
1288 11-02-2019 11:15:00 5.8 C 83 % 3.14 C
1289 11-02-2019 11:20:00 5.9 C 82 % 3.07 C
1290 11-02-2019 11:25:00 5.9 C 82 % 3.07 C
1291 11-02-2019 11:30:00 5.9 C 81 % 2.9 C
1292 11-02-2019 11:35:00 6.1 C 81 % 3.09 C
1293 11-02-2019 11:40:00 6.1 C 82 % 3.26 C
1294 11-02-2019 11:45:00 6.2 C 80 % 3.01 C
1295 11-02-2019 11:50:00 6.2 C 81 % 3.19 C
1296 11-02-2019 11:55:00 6.3 C 81 % 3.29 C
1297 11-02-2019 12:00:00 6.3 C 80 % 3.11 C
1298 11-02-2019 12:05:00 6.4 C 78 % 2.85 C
1299 11-02-2019 12:10:00 6.5 C 79 % 3.13 C
1300 11-02-2019 12:15:00 6.6 C 78 % 3.05 C
Sensor: Nr:Datum:Temp:Feuchte:Taupunkt:
Aussen-T/F 1301 11-02-2019 12:20:00 6.6 C 78 % 3.05 C
1302 11-02-2019 12:25:00 6.6 C 78 % 3.05 C
1303 11-02-2019 12:30:00 6.6 C 78 % 3.05 C
1304 11-02-2019 12:35:00 6.7 C 78 % 3.14 C
1305 11-02-2019 12:40:00 6.7 C 79 % 3.32 C
1306 11-02-2019 12:45:00 6.8 C 78 % 3.24 C
1307 11-02-2019 12:50:00 6.8 C 79 % 3.42 C
1308 11-02-2019 12:55:00 6.8 C 78 % 3.24 C
1309 11-02-2019 13:00:00 6.9 C 78 % 3.34 C
1310 11-02-2019 13:05:00 7.1 C 76 % 3.16 C
1311 11-02-2019 13:10:00 7.2 C 76 % 3.26 C
1312 11-02-2019 13:15:00 7.2 C 75 % 3.07 C
1313 11-02-2019 13:20:00 7.2 C 75 % 3.07 C
1314 11-02-2019 13:25:00 7.3 C 75 % 3.17 C
1315 11-02-2019 13:30:00 7.3 C 75 % 3.17 C
1316 11-02-2019 13:35:00 7.4 C 74 % 3.08 C
1317 11-02-2019 13:40:00 7.5 C 73 % 2.98 C
1318 11-02-2019 13:45:00 7.6 C 72 % 2.88 C
1319 11-02-2019 13:50:00 7.4 C 71 % 2.5 C
1320 11-02-2019 13:55:00 7.4 C 73 % 2.89 C
1321 11-02-2019 14:00:00 7.3 C 73 % 2.79 C
1322 11-02-2019 14:05:00 7.3 C 73 % 2.79 C
1323 11-02-2019 14:10:00 7.3 C 73 % 2.79 C
1324 11-02-2019 14:15:00 7.3 C 73 % 2.79 C
1325 11-02-2019 14:20:00 7.3 C 74 % 2.98 C
Sensor: Nr:Datum:Temp:Feuchte:Taupunkt:
Aussen-T/F 1326 11-02-2019 14:25:00 7.3 C 72 % 2.6 C
1327 11-02-2019 14:30:00 7.3 C 73 % 2.79 C
1328 11-02-2019 14:35:00 7.4 C 73 % 2.89 C
1329 11-02-2019 14:40:00 7.4 C 74 % 3.08 C
1330 11-02-2019 14:45:00 7.5 C 72 % 2.79 C
1331 11-02-2019 14:50:00 7.5 C 73 % 2.98 C
1332 11-02-2019 14:55:00 7.4 C 72 % 2.69 C
1333 11-02-2019 15:00:00 7.4 C 73 % 2.89 C
1334 11-02-2019 15:05:00 7.4 C 74 % 3.08 C
1335 11-02-2019 15:10:00 7.3 C 73 % 2.79 C
1336 11-02-2019 15:15:00 7.3 C 74 % 2.98 C
1337 11-02-2019 15:20:00 7.3 C 74 % 2.98 C
1338 11-02-2019 15:25:00 7.3 C 74 % 2.98 C
1339 11-02-2019 15:30:00 7.3 C 74 % 2.98 C
1340 11-02-2019 15:35:00 7.4 C 73 % 2.89 C
1341 11-02-2019 15:40:00 7.4 C 74 % 3.08 C
1342 11-02-2019 15:45:00 7.4 C 74 % 3.08 C
1343 11-02-2019 15:50:00 7.4 C 74 % 3.08 C
1344 11-02-2019 15:55:00 7.4 C 74 % 3.08 C
1345 11-02-2019 16:00:00 7.3 C 75 % 3.17 C
1346 11-02-2019 16:05:00 7.3 C 76 % 3.36 C
1347 11-02-2019 16:10:00 7.1 C 78 % 3.53 C
1348 11-02-2019 16:15:00 7 C 78 % 3.43 C
1349 11-02-2019 16:20:00 6.9 C 79 % 3.52 C
1350 11-02-2019 16:25:00 6.8 C 79 % 3.42 C
Sensor: Nr:Datum:Temp:Feuchte:Taupunkt:
Aussen-T/F 1351 11-02-2019 16:30:00 6.8 C 79 % 3.42 C
1352 11-02-2019 16:35:00 6.8 C 79 % 3.42 C
1353 11-02-2019 16:40:00 6.8 C 79 % 3.42 C
1354 11-02-2019 16:45:00 6.8 C 81 % 3.77 C
1355 11-02-2019 16:50:00 6.7 C 82 % 3.85 C
1356 11-02-2019 16:55:00 6.6 C 83 % 3.92 C
1357 11-02-2019 17:00:00 6.4 C 84 % 3.9 C
1358 11-02-2019 17:05:00 6.4 C 84 % 3.9 C
1359 11-02-2019 17:10:00 6.3 C 84 % 3.8 C
1360 11-02-2019 17:15:00 6.2 C 85 % 3.87 C
1361 11-02-2019 17:20:00 6.1 C 85 % 3.77 C
1362 11-02-2019 17:25:00 6.1 C 86 % 3.94 C
1363 11-02-2019 17:30:00 6.1 C 84 % 3.61 C
1364 11-02-2019 17:35:00 6.1 C 83 % 3.44 C
1365 11-02-2019 17:40:00 6.2 C 83 % 3.53 C
1366 11-02-2019 17:45:00 6.2 C 83 % 3.53 C
1367 11-02-2019 17:50:00 6.2 C 83 % 3.53 C
1368 11-02-2019 17:55:00 6.1 C 81 % 3.09 C
1369 11-02-2019 18:00:00 6.1 C 79 % 2.74 C
1370 11-02-2019 18:05:00 6.1 C 79 % 2.74 C
1371 11-02-2019 18:10:00 6 C 78 % 2.46 C
1372 11-02-2019 18:15:00 5.9 C 79 % 2.54 C
1373 11-02-2019 18:20:00 5.8 C 79 % 2.45 C
1374 11-02-2019 18:25:00 5.8 C 79 % 2.45 C
1375 11-02-2019 18:30:00 5.7 C 79 % 2.35 C
Sensor: Nr:Datum:Temp:Feuchte:Taupunkt:
Aussen-T/F 1376 11-02-2019 18:35:00 5.7 C 79 % 2.35 C
1377 11-02-2019 18:40:00 5.6 C 80 % 2.43 C
1378 11-02-2019 18:45:00 5.4 C 80 % 2.23 C
1379 11-02-2019 18:50:00 5.4 C 80 % 2.23 C
1380 11-02-2019 18:55:00 5.3 C 81 % 2.31 C
1381 11-02-2019 19:00:00 5.3 C 81 % 2.31 C
1382 11-02-2019 19:05:00 5.2 C 81 % 2.21 C
1383 11-02-2019 19:10:00 5 C 82 % 2.19 C
1384 11-02-2019 19:15:00 4.9 C 83 % 2.26 C
1385 11-02-2019 19:20:00 4.7 C 84 % 2.23 C
1386 11-02-2019 19:25:00 4.6 C 84 % 2.14 C
1387 11-02-2019 19:30:00 4.5 C 86 % 2.37 C
1388 11-02-2019 19:35:00 4.6 C 87 % 2.63 C
1389 11-02-2019 19:40:00 4.8 C 87 % 2.82 C
1390 11-02-2019 19:45:00 4.8 C 87 % 2.82 C
1391 11-02-2019 19:50:00 4.8 C 87 % 2.82 C
1392 11-02-2019 19:55:00 4.8 C 87 % 2.82 C
1393 11-02-2019 20:00:00 4.8 C 87 % 2.82 C
1394 11-02-2019 20:05:00 4.7 C 86 % 2.56 C
1395 11-02-2019 20:10:00 4.4 C 86 % 2.27 C
1396 11-02-2019 20:15:00 4.3 C 87 % 2.33 C
1397 11-02-2019 20:20:00 4.2 C 87 % 2.23 C
1398 11-02-2019 20:25:00 4.1 C 88 % 2.3 C
1399 11-02-2019 20:30:00 3.9 C 88 % 2.1 C
1400 11-02-2019 20:35:00 3.9 C 88 % 2.1 C
Sensor: Nr:Datum:Temp:Feuchte:Taupunkt:
Aussen-T/F 1401 11-02-2019 20:40:00 3.9 C 89 % 2.26 C
1402 11-02-2019 20:45:00 3.9 C 88 % 2.1 C
1403 11-02-2019 20:50:00 3.9 C 88 % 2.1 C
1404 11-02-2019 20:55:00 3.9 C 88 % 2.1 C
1405 11-02-2019 21:00:00 3.8 C 88 % 2 C
1406 11-02-2019 21:05:00 3.7 C 88 % 1.9 C
1407 11-02-2019 21:10:00 3.7 C 88 % 1.9 C
1408 11-02-2019 21:15:00 3.5 C 89 % 1.86 C
1409 11-02-2019 21:20:00 3.4 C 89 % 1.76 C
1410 11-02-2019 21:25:00 3.4 C 89 % 1.76 C
1411 11-02-2019 21:30:00 3.4 C 89 % 1.76 C
1412 11-02-2019 21:35:00 3.4 C 89 % 1.76 C
1413 11-02-2019 21:40:00 3.4 C 89 % 1.76 C
1414 11-02-2019 21:45:00 3.3 C 88 % 1.51 C
1415 11-02-2019 21:50:00 3.2 C 89 % 1.57 C
1416 11-02-2019 21:55:00 3.2 C 89 % 1.57 C
1417 11-02-2019 22:00:00 3.1 C 89 % 1.47 C
1418 11-02-2019 22:05:00 3 C 89 % 1.37 C
1419 11-02-2019 22:10:00 2.9 C 89 % 1.27 C
1420 11-02-2019 22:15:00 2.8 C 89 % 1.17 C
1421 11-02-2019 22:20:00 2.8 C 90 % 1.33 C
1422 11-02-2019 22:25:00 2.7 C 90 % 1.23 C
1423 11-02-2019 22:30:00 2.7 C 90 % 1.23 C
1424 11-02-2019 22:35:00 2.7 C 90 % 1.23 C
1425 11-02-2019 22:40:00 2.7 C 91 % 1.38 C
Sensor: Nr:Datum:Temp:Feuchte:Taupunkt:
Aussen-T/F 1426 11-02-2019 22:45:00 2.6 C 91 % 1.28 C
1427 11-02-2019 22:50:00 2.6 C 91 % 1.28 C
1428 11-02-2019 22:55:00 2.6 C 91 % 1.28 C
1429 11-02-2019 23:00:00 2.5 C 91 % 1.18 C
1430 11-02-2019 23:05:00 2.5 C 91 % 1.18 C
1431 11-02-2019 23:10:00 2.4 C 91 % 1.08 C
1432 11-02-2019 23:15:00 2.4 C 91 % 1.08 C
1433 11-02-2019 23:20:00 2.4 C 92 % 1.24 C
1434 11-02-2019 23:25:00 2.5 C 92 % 1.34 C
1435 11-02-2019 23:30:00 2.5 C 92 % 1.34 C
1436 11-02-2019 23:35:00 2.6 C 92 % 1.43 C
1437 11-02-2019 23:40:00 2.6 C 92 % 1.43 C
1438 11-02-2019 23:45:00 2.7 C 92 % 1.53 C
1439 11-02-2019 23:50:00 2.8 C 92 % 1.63 C
1440 11-02-2019 23:55:00 2.9 C 91 % 1.58 C
1441 12-02-2019 00:00:00 2.9 C 91 % 1.58 C
1442 12-02-2019 00:05:00 3 C 91 % 1.68 C
1443 12-02-2019 00:10:00 3 C 90 % 1.52 C
1444 12-02-2019 00:15:00 3.1 C 90 % 1.62 C
1445 12-02-2019 00:20:00 3.1 C 90 % 1.62 C
1446 12-02-2019 00:25:00 3.1 C 90 % 1.62 C
1447 12-02-2019 00:30:00 3.1 C 90 % 1.62 C
1448 12-02-2019 00:35:00 3.2 C 90 % 1.72 C
1449 12-02-2019 00:40:00 3.3 C 90 % 1.82 C
1450 12-02-2019 00:45:00 3.3 C 89 % 1.67 C
Sensor: Nr:Datum:Temp:Feuchte:Taupunkt:
Aussen-T/F 1451 12-02-2019 00:50:00 3.2 C 89 % 1.57 C
1452 12-02-2019 00:55:00 3.2 C 89 % 1.57 C
1453 12-02-2019 01:00:00 3.2 C 89 % 1.57 C
1454 12-02-2019 01:05:00 3.2 C 89 % 1.57 C
1455 12-02-2019 01:10:00 3.2 C 90 % 1.72 C
1456 12-02-2019 01:15:00 3.1 C 90 % 1.62 C
1457 12-02-2019 01:20:00 3.1 C 90 % 1.62 C
1458 12-02-2019 01:25:00 3.1 C 90 % 1.62 C
1459 12-02-2019 01:30:00 3.1 C 90 % 1.62 C
1460 12-02-2019 01:35:00 3.1 C 90 % 1.62 C
1461 12-02-2019 01:40:00 3 C 90 % 1.52 C
1462 12-02-2019 01:45:00 2.9 C 90 % 1.43 C
1463 12-02-2019 01:50:00 2.9 C 90 % 1.43 C
1464 12-02-2019 01:55:00 2.8 C 90 % 1.33 C
1465 12-02-2019 02:00:00 2.8 C 90 % 1.33 C
1466 12-02-2019 02:05:00 2.7 C 90 % 1.23 C
1467 12-02-2019 02:10:00 2.7 C 91 % 1.38 C
1468 12-02-2019 02:15:00 2.8 C 91 % 1.48 C
1469 12-02-2019 02:20:00 2.8 C 91 % 1.48 C
1470 12-02-2019 02:25:00 2.8 C 91 % 1.48 C
1471 12-02-2019 02:30:00 2.8 C 91 % 1.48 C
1472 12-02-2019 02:35:00 2.8 C 91 % 1.48 C
1473 12-02-2019 02:40:00 2.9 C 91 % 1.58 C
1474 12-02-2019 02:45:00 2.9 C 91 % 1.58 C
1475 12-02-2019 02:50:00 2.8 C 91 % 1.48 C
Sensor: Nr:Datum:Temp:Feuchte:Taupunkt:
Aussen-T/F 1476 12-02-2019 02:55:00 2.8 C 91 % 1.48 C
1477 12-02-2019 03:00:00 2.8 C 91 % 1.48 C
1478 12-02-2019 03:05:00 2.8 C 91 % 1.48 C
1479 12-02-2019 03:10:00 2.8 C 91 % 1.48 C
1480 12-02-2019 03:15:00 2.8 C 91 % 1.48 C
1481 12-02-2019 03:20:00 2.8 C 91 % 1.48 C
1482 12-02-2019 03:25:00 2.7 C 91 % 1.38 C
1483 12-02-2019 03:30:00 2.7 C 90 % 1.23 C
1484 12-02-2019 03:35:00 2.6 C 90 % 1.13 C
1485 12-02-2019 03:40:00 2.5 C 90 % 1.03 C
1486 12-02-2019 03:45:00 2.4 C 91 % 1.08 C
1487 12-02-2019 03:50:00 2.4 C 91 % 1.08 C
1488 12-02-2019 03:55:00 2.3 C 91 % 0.99 C
1489 12-02-2019 04:00:00 2.3 C 91 % 0.99 C
1490 12-02-2019 04:05:00 2.3 C 91 % 0.99 C
1491 12-02-2019 04:10:00 2.3 C 91 % 0.99 C
1492 12-02-2019 04:15:00 2.3 C 92 % 1.14 C
1493 12-02-2019 04:20:00 2.4 C 92 % 1.24 C
1494 12-02-2019 04:25:00 2.4 C 92 % 1.24 C
1495 12-02-2019 04:30:00 2.5 C 92 % 1.34 C
1496 12-02-2019 04:35:00 2.6 C 91 % 1.28 C
1497 12-02-2019 04:40:00 2.6 C 91 % 1.28 C
1498 12-02-2019 04:45:00 2.7 C 91 % 1.38 C
1499 12-02-2019 04:50:00 2.7 C 91 % 1.38 C
1500 12-02-2019 04:55:00 2.7 C 91 % 1.38 C
Sensor: Nr:Datum:Temp:Feuchte:Taupunkt:
Aussen-T/F 1501 12-02-2019 05:00:00 2.7 C 91 % 1.38 C
1502 12-02-2019 05:05:00 2.7 C 91 % 1.38 C
1503 12-02-2019 05:10:00 2.7 C 90 % 1.23 C
1504 12-02-2019 05:15:00 2.7 C 90 % 1.23 C
1505 12-02-2019 05:20:00 2.6 C 90 % 1.13 C
1506 12-02-2019 05:25:00 2.6 C 90 % 1.13 C
1507 12-02-2019 05:30:00 2.6 C 90 % 1.13 C
1508 12-02-2019 05:35:00 2.6 C 91 % 1.28 C
1509 12-02-2019 05:40:00 2.6 C 91 % 1.28 C
1510 12-02-2019 05:45:00 2.6 C 91 % 1.28 C
1511 12-02-2019 05:50:00 2.6 C 91 % 1.28 C
1512 12-02-2019 05:55:00 2.6 C 90 % 1.13 C
1513 12-02-2019 06:00:00 2.6 C 90 % 1.13 C
1514 12-02-2019 06:05:00 2.5 C 90 % 1.03 C
1515 12-02-2019 06:10:00 2.5 C 90 % 1.03 C
1516 12-02-2019 06:15:00 2.5 C 90 % 1.03 C
1517 12-02-2019 06:20:00 2.5 C 90 % 1.03 C
1518 12-02-2019 06:25:00 2.4 C 90 % 0.93 C
1519 12-02-2019 06:30:00 2.3 C 90 % 0.83 C
1520 12-02-2019 06:35:00 2.3 C 90 % 0.83 C
1521 12-02-2019 06:40:00 2.3 C 90 % 0.83 C
1522 12-02-2019 06:45:00 2.3 C 90 % 0.83 C
1523 12-02-2019 06:50:00 2.3 C 90 % 0.83 C
1524 12-02-2019 06:55:00 2.3 C 91 % 0.99 C
1525 12-02-2019 07:00:00 2.4 C 90 % 0.93 C
Sensor: Nr:Datum:Temp:Feuchte:Taupunkt:
Aussen-T/F 1526 12-02-2019 07:05:00 2.4 C 90 % 0.93 C
1527 12-02-2019 07:10:00 2.5 C 90 % 1.03 C
1528 12-02-2019 07:15:00 2.5 C 90 % 1.03 C
1529 12-02-2019 07:20:00 2.5 C 90 % 1.03 C
1530 12-02-2019 07:25:00 2.4 C 90 % 0.93 C
1531 12-02-2019 07:30:00 2.4 C 90 % 0.93 C
1532 12-02-2019 07:35:00 2.4 C 90 % 0.93 C
1533 12-02-2019 07:40:00 2.4 C 90 % 0.93 C
1534 12-02-2019 07:45:00 2.4 C 90 % 0.93 C
1535 12-02-2019 07:50:00 2.4 C 90 % 0.93 C
1536 12-02-2019 07:55:00 2.3 C 90 % 0.83 C
1537 12-02-2019 08:00:00 2.3 C 90 % 0.83 C
1538 12-02-2019 08:05:00 2.3 C 90 % 0.83 C
1539 12-02-2019 08:10:00 2.3 C 90 % 0.83 C
1540 12-02-2019 08:15:00 2.3 C 90 % 0.83 C
1541 12-02-2019 08:20:00 2.3 C 90 % 0.83 C
1542 12-02-2019 08:25:00 2.2 C 90 % 0.73 C
1543 12-02-2019 08:30:00 2.2 C 90 % 0.73 C
1544 12-02-2019 08:35:00 2.2 C 90 % 0.73 C
1545 12-02-2019 08:40:00 2.2 C 90 % 0.73 C
1546 12-02-2019 08:45:00 2.3 C 90 % 0.83 C
1547 12-02-2019 08:50:00 2.3 C 90 % 0.83 C
1548 12-02-2019 08:55:00 2.4 C 90 % 0.93 C
1549 12-02-2019 09:00:00 2.5 C 90 % 1.03 C
1550 12-02-2019 09:05:00 2.6 C 90 % 1.13 C
Sensor: Nr:Datum:Temp:Feuchte:Taupunkt:
Aussen-T/F 1551 12-02-2019 09:10:00 2.7 C 89 % 1.07 C
1552 12-02-2019 09:15:00 2.8 C 89 % 1.17 C
1553 12-02-2019 09:20:00 2.8 C 89 % 1.17 C
1554 12-02-2019 09:25:00 2.9 C 89 % 1.27 C
1555 12-02-2019 09:30:00 3 C 89 % 1.37 C
1556 12-02-2019 09:35:00 3.1 C 88 % 1.31 C
1557 12-02-2019 09:40:00 3.2 C 88 % 1.41 C
1558 12-02-2019 09:45:00 3.3 C 88 % 1.51 C
1559 12-02-2019 09:50:00 3.4 C 88 % 1.61 C
1560 12-02-2019 09:55:00 3.5 C 88 % 1.7 C
1561 12-02-2019 10:00:00 3.6 C 88 % 1.8 C
1562 12-02-2019 10:05:00 3.7 C 87 % 1.74 C
1563 12-02-2019 10:10:00 3.7 C 87 % 1.74 C
1564 12-02-2019 10:15:00 3.8 C 87 % 1.84 C
1565 12-02-2019 10:20:00 3.8 C 87 % 1.84 C
1566 12-02-2019 10:25:00 3.9 C 86 % 1.78 C
1567 12-02-2019 10:30:00 4 C 86 % 1.88 C
1568 12-02-2019 10:35:00 4.1 C 86 % 1.97 C
1569 12-02-2019 10:40:00 4.2 C 86 % 2.07 C
1570 12-02-2019 10:45:00 4.2 C 85 % 1.91 C
1571 12-02-2019 10:50:00 4.2 C 85 % 1.91 C
1572 12-02-2019 10:55:00 4.3 C 86 % 2.17 C
1573 12-02-2019 11:00:00 4.3 C 85 % 2.01 C
1574 12-02-2019 11:05:00 4.4 C 85 % 2.11 C
1575 12-02-2019 11:10:00 4.4 C 85 % 2.11 C
Sensor: Nr:Datum:Temp:Feuchte:Taupunkt:
Aussen-T/F 1576 12-02-2019 11:15:00 4.5 C 84 % 2.04 C
1577 12-02-2019 11:20:00 4.6 C 84 % 2.14 C
1578 12-02-2019 11:25:00 4.6 C 84 % 2.14 C
1579 12-02-2019 11:30:00 4.7 C 84 % 2.23 C
1580 12-02-2019 11:35:00 4.7 C 84 % 2.23 C
1581 12-02-2019 11:40:00 4.8 C 84 % 2.33 C
1582 12-02-2019 11:45:00 4.9 C 84 % 2.43 C
1583 12-02-2019 11:50:00 5 C 83 % 2.36 C
1584 12-02-2019 11:55:00 5 C 83 % 2.36 C
1585 12-02-2019 12:00:00 5.1 C 83 % 2.46 C
1586 12-02-2019 12:05:00 5.1 C 83 % 2.46 C
1587 12-02-2019 12:10:00 5.2 C 83 % 2.56 C
1588 12-02-2019 12:15:00 5.3 C 83 % 2.65 C
1589 12-02-2019 12:20:00 5.3 C 82 % 2.48 C
1590 12-02-2019 12:25:00 5.4 C 82 % 2.58 C
1591 12-02-2019 12:30:00 5.4 C 82 % 2.58 C
1592 12-02-2019 12:35:00 5.5 C 83 % 2.85 C
1593 12-02-2019 12:40:00 5.6 C 83 % 2.95 C
1594 12-02-2019 12:45:00 5.7 C 81 % 2.7 C
1595 12-02-2019 12:50:00 5.8 C 81 % 2.8 C
1596 12-02-2019 12:55:00 5.9 C 81 % 2.9 C
1597 12-02-2019 13:00:00 6 C 81 % 2.99 C
1598 12-02-2019 13:05:00 6.1 C 81 % 3.09 C
1599 12-02-2019 13:10:00 6.2 C 80 % 3.01 C
1600 12-02-2019 13:15:00 6.2 C 80 % 3.01 C
Sensor: Nr:Datum:Temp:Feuchte:Taupunkt:
Aussen-T/F 1601 12-02-2019 13:20:00 6.2 C 79 % 2.84 C
1602 12-02-2019 13:25:00 6.3 C 80 % 3.11 C
1603 12-02-2019 13:30:00 6.3 C 80 % 3.11 C
1604 12-02-2019 13:35:00 6.4 C 80 % 3.21 C
1605 12-02-2019 13:40:00 6.4 C 78 % 2.85 C
1606 12-02-2019 13:45:00 6.5 C 78 % 2.95 C
1607 12-02-2019 13:50:00 6.5 C 78 % 2.95 C
1608 12-02-2019 13:55:00 6.6 C 78 % 3.05 C
1609 12-02-2019 14:00:00 6.7 C 78 % 3.14 C
1610 12-02-2019 14:05:00 6.7 C 78 % 3.14 C
1611 12-02-2019 14:10:00 6.8 C 78 % 3.24 C
1612 12-02-2019 14:15:00 6.9 C 77 % 3.16 C
1613 12-02-2019 14:20:00 6.9 C 76 % 2.97 C
1614 12-02-2019 14:25:00 6.9 C 76 % 2.97 C
1615 12-02-2019 14:30:00 6.9 C 76 % 2.97 C
1616 12-02-2019 14:35:00 6.9 C 76 % 2.97 C
1617 12-02-2019 14:40:00 7 C 76 % 3.07 C
1618 12-02-2019 14:45:00 6.9 C 77 % 3.16 C
1619 12-02-2019 14:50:00 6.9 C 76 % 2.97 C
1620 12-02-2019 14:55:00 7 C 77 % 3.25 C
1621 12-02-2019 15:00:00 6.9 C 76 % 2.97 C
1622 12-02-2019 15:05:00 6.9 C 75 % 2.78 C
1623 12-02-2019 15:10:00 7 C 75 % 2.88 C
1624 12-02-2019 15:15:00 7 C 76 % 3.07 C
1625 12-02-2019 15:20:00 7.1 C 76 % 3.16 C
Sensor: Nr:Datum:Temp:Feuchte:Taupunkt:
Aussen-T/F 1626 12-02-2019 15:25:00 7.1 C 76 % 3.16 C
1627 12-02-2019 15:30:00 7.1 C 76 % 3.16 C
1628 12-02-2019 15:35:00 7.1 C 75 % 2.98 C
1629 12-02-2019 15:40:00 7.1 C 76 % 3.16 C
1630 12-02-2019 15:45:00 7.1 C 76 % 3.16 C
1631 12-02-2019 15:50:00 7.1 C 76 % 3.16 C
1632 12-02-2019 15:55:00 7.1 C 76 % 3.16 C
1633 12-02-2019 16:00:00 7.2 C 77 % 3.45 C
1634 12-02-2019 16:05:00 7.3 C 76 % 3.36 C
1635 12-02-2019 16:10:00 7.4 C 76 % 3.45 C
1636 12-02-2019 16:15:00 7.5 C 75 % 3.36 C
1637 12-02-2019 16:20:00 7.6 C 75 % 3.46 C
1638 12-02-2019 16:25:00 7.5 C 74 % 3.17 C
1639 12-02-2019 16:30:00 7.5 C 75 % 3.36 C
1640 12-02-2019 16:35:00 7.5 C 74 % 3.17 C
1641 12-02-2019 16:40:00 7.5 C 73 % 2.98 C
1642 12-02-2019 16:45:00 7.4 C 74 % 3.08 C
1643 12-02-2019 16:50:00 7.4 C 75 % 3.27 C
1644 12-02-2019 16:55:00 7.3 C 74 % 2.98 C
1645 12-02-2019 17:00:00 7.2 C 75 % 3.07 C
1646 12-02-2019 17:05:00 7.1 C 75 % 2.98 C
1647 12-02-2019 17:10:00 7 C 76 % 3.07 C
1648 12-02-2019 17:15:00 6.9 C 75 % 2.78 C
1649 12-02-2019 17:20:00 6.8 C 76 % 2.87 C
1650 12-02-2019 17:25:00 6.8 C 77 % 3.06 C
Sensor: Nr:Datum:Temp:Feuchte:Taupunkt:
Aussen-T/F 1651 12-02-2019 17:30:00 6.7 C 77 % 2.96 C
1652 12-02-2019 17:35:00 6.4 C 78 % 2.85 C
1653 12-02-2019 17:40:00 6.3 C 79 % 2.93 C
1654 12-02-2019 17:45:00 6.1 C 79 % 2.74 C
1655 12-02-2019 17:50:00 5.8 C 80 % 2.62 C
1656 12-02-2019 17:55:00 5.6 C 81 % 2.6 C
1657 12-02-2019 18:00:00 5.3 C 81 % 2.31 C
1658 12-02-2019 18:05:00 5.1 C 82 % 2.29 C
1659 12-02-2019 18:10:00 4.9 C 83 % 2.26 C
1660 12-02-2019 18:15:00 4.7 C 84 % 2.23 C
1661 12-02-2019 18:20:00 4.6 C 84 % 2.14 C
1662 12-02-2019 18:25:00 4.4 C 85 % 2.11 C
1663 12-02-2019 18:30:00 4.2 C 85 % 1.91 C
1664 12-02-2019 18:35:00 4.1 C 86 % 1.97 C
1665 12-02-2019 18:40:00 3.9 C 86 % 1.78 C
1666 12-02-2019 18:45:00 3.8 C 86 % 1.68 C
1667 12-02-2019 18:50:00 3.7 C 87 % 1.74 C
1668 12-02-2019 18:55:00 3.6 C 87 % 1.64 C
1669 12-02-2019 19:00:00 3.5 C 87 % 1.55 C
1670 12-02-2019 19:05:00 3.4 C 87 % 1.45 C
1671 12-02-2019 19:10:00 3.3 C 88 % 1.51 C
1672 12-02-2019 19:15:00 3.2 C 88 % 1.41 C
1673 12-02-2019 19:20:00 3.1 C 88 % 1.31 C
1674 12-02-2019 19:25:00 3.1 C 89 % 1.47 C
1675 12-02-2019 19:30:00 2.9 C 89 % 1.27 C
Sensor: Nr:Datum:Temp:Feuchte:Taupunkt:
Aussen-T/F 1676 12-02-2019 19:35:00 2.9 C 89 % 1.27 C
1677 12-02-2019 19:40:00 2.8 C 89 % 1.17 C
1678 12-02-2019 19:45:00 2.8 C 89 % 1.17 C
1679 12-02-2019 19:50:00 2.7 C 89 % 1.07 C
1680 12-02-2019 19:55:00 2.6 C 89 % 0.97 C
1681 12-02-2019 20:00:00 2.6 C 90 % 1.13 C
1682 12-02-2019 20:05:00 2.5 C 90 % 1.03 C
1683 12-02-2019 20:10:00 2.4 C 90 % 0.93 C
1684 12-02-2019 20:15:00 2.4 C 90 % 0.93 C
1685 12-02-2019 20:20:00 2.4 C 90 % 0.93 C
1686 12-02-2019 20:25:00 2.4 C 90 % 0.93 C
1687 12-02-2019 20:30:00 2.3 C 90 % 0.83 C
1688 12-02-2019 20:35:00 2.3 C 90 % 0.83 C
1689 12-02-2019 20:40:00 2.3 C 91 % 0.99 C
1690 12-02-2019 20:45:00 2.2 C 91 % 0.89 C
1691 12-02-2019 20:50:00 2.1 C 91 % 0.79 C
1692 12-02-2019 20:55:00 2.1 C 91 % 0.79 C
1693 12-02-2019 21:00:00 1.9 C 90 % 0.44 C
1694 12-02-2019 21:05:00 1.8 C 91 % 0.49 C
1695 12-02-2019 21:10:00 1.8 C 91 % 0.49 C
1696 12-02-2019 21:15:00 1.7 C 91 % 0.39 C
1697 12-02-2019 21:20:00 1.6 C 91 % 0.29 C
1698 12-02-2019 21:25:00 1.6 C 92 % 0.44 C
1699 12-02-2019 21:30:00 1.6 C 92 % 0.44 C
1700 12-02-2019 21:35:00 1.5 C 92 % 0.35 C
Sensor: Nr:Datum:Temp:Feuchte:Taupunkt:
Aussen-T/F 1701 12-02-2019 21:40:00 1.4 C 92 % 0.25 C
1702 12-02-2019 21:45:00 1.4 C 92 % 0.25 C
1703 12-02-2019 21:50:00 1.4 C 92 % 0.25 C
1704 12-02-2019 21:55:00 1.4 C 92 % 0.25 C
1705 12-02-2019 22:00:00 1.3 C 92 % 0.15 C
1706 12-02-2019 22:05:00 1.3 C 92 % 0.15 C
1707 12-02-2019 22:10:00 1.3 C 93 % 0.3 C
1708 12-02-2019 22:15:00 1.3 C 93 % 0.3 C
1709 12-02-2019 22:20:00 1.4 C 93 % 0.4 C
1710 12-02-2019 22:25:00 1.5 C 93 % 0.49 C
1711 12-02-2019 22:30:00 1.5 C 93 % 0.49 C
1712 12-02-2019 22:35:00 1.5 C 93 % 0.49 C
1713 12-02-2019 22:40:00 1.6 C 93 % 0.59 C
1714 12-02-2019 22:45:00 1.5 C 93 % 0.49 C
1715 12-02-2019 22:50:00 1.4 C 93 % 0.4 C
1716 12-02-2019 22:55:00 1.4 C 93 % 0.4 C
1717 12-02-2019 23:00:00 1.4 C 93 % 0.4 C
1718 12-02-2019 23:05:00 1.4 C 93 % 0.4 C
1719 12-02-2019 23:10:00 1.4 C 93 % 0.4 C
1720 12-02-2019 23:15:00 1.3 C 93 % 0.3 C
1721 12-02-2019 23:20:00 1.3 C 93 % 0.3 C
1722 12-02-2019 23:25:00 1.3 C 93 % 0.3 C
1723 12-02-2019 23:30:00 1.3 C 93 % 0.3 C
1724 12-02-2019 23:35:00 1.3 C 93 % 0.3 C
1725 12-02-2019 23:40:00 1.4 C 94 % 0.54 C
Sensor: Nr:Datum:Temp:Feuchte:Taupunkt:
Aussen-T/F 1726 12-02-2019 23:45:00 1.5 C 94 % 0.64 C
1727 12-02-2019 23:50:00 1.5 C 94 % 0.64 C
1728 12-02-2019 23:55:00 1.4 C 93 % 0.4 C
1729 13-02-2019 00:00:00 1.4 C 93 % 0.4 C
1730 13-02-2019 00:05:00 1.4 C 93 % 0.4 C
1731 13-02-2019 00:10:00 1.3 C 93 % 0.3 C
1732 13-02-2019 00:15:00 1.3 C 93 % 0.3 C
1733 13-02-2019 00:20:00 1.3 C 93 % 0.3 C
1734 13-02-2019 00:25:00 1.2 C 93 % 0.2 C
1735 13-02-2019 00:30:00 1.2 C 93 % 0.2 C
1736 13-02-2019 00:35:00 1.2 C 93 % 0.2 C
1737 13-02-2019 00:40:00 1.2 C 93 % 0.2 C
1738 13-02-2019 00:45:00 1.2 C 93 % 0.2 C
1739 13-02-2019 00:50:00 1.2 C 93 % 0.2 C
1740 13-02-2019 00:55:00 1.1 C 93 % 0.1 C
1741 13-02-2019 01:00:00 0.9 C 93 % -0.1 C
1742 13-02-2019 01:05:00 1 C 94 % 0.15 C
1743 13-02-2019 01:10:00 0.9 C 93 % -0.1 C
1744 13-02-2019 01:15:00 0.9 C 93 % -0.1 C
1745 13-02-2019 01:20:00 0.8 C 93 % -0.2 C
1746 13-02-2019 01:25:00 0.8 C 93 % -0.2 C
1747 13-02-2019 01:30:00 0.8 C 93 % -0.2 C
1748 13-02-2019 01:35:00 0.9 C 94 % 0.05 C
1749 13-02-2019 01:40:00 1 C 94 % 0.15 C
1750 13-02-2019 01:45:00 0.9 C 93 % -0.1 C
Sensor: Nr:Datum:Temp:Feuchte:Taupunkt:
Aussen-T/F 1751 13-02-2019 01:50:00 0.8 C 93 % -0.2 C
1752 13-02-2019 01:55:00 0.6 C 93 % -0.4 C
1753 13-02-2019 02:00:00 0.5 C 93 % -0.5 C
1754 13-02-2019 02:05:00 0.3 C 93 % -0.7 C
1755 13-02-2019 02:10:00 0.2 C 93 % -0.79 C
1756 13-02-2019 02:15:00 0.2 C 93 % -0.79 C
1757 13-02-2019 02:20:00 0.1 C 93 % -0.89 C
1758 13-02-2019 02:25:00 0.1 C 93 % -0.89 C
1759 13-02-2019 02:30:00 0.1 C 93 % -0.89 C
1760 13-02-2019 02:35:00 0 C 94 % -0.85 C
1761 13-02-2019 02:40:00 0.1 C 94 % -0.75 C
1762 13-02-2019 02:45:00 0 C 94 % -0.85 C
1763 13-02-2019 02:50:00 0 C 94 % -0.85 C
1764 13-02-2019 02:55:00 -0.1 C 94 % -0.95 C
1765 13-02-2019 03:00:00 -0.2 C 94 % -1.05 C
1766 13-02-2019 03:05:00 -0.2 C 94 % -1.05 C
1767 13-02-2019 03:10:00 -0.3 C 94 % -1.15 C
1768 13-02-2019 03:15:00 -0.3 C 94 % -1.15 C
1769 13-02-2019 03:20:00 -0.3 C 94 % -1.15 C
1770 13-02-2019 03:25:00 -0.4 C 94 % -1.25 C
1771 13-02-2019 03:30:00 -0.4 C 94 % -1.25 C
1772 13-02-2019 03:35:00 -0.4 C 94 % -1.25 C
1773 13-02-2019 03:40:00 -0.4 C 94 % -1.25 C
1774 13-02-2019 03:45:00 -0.3 C 94 % -1.15 C
1775 13-02-2019 03:50:00 -0.3 C 94 % -1.15 C
Sensor: Nr:Datum:Temp:Feuchte:Taupunkt:
Aussen-T/F 1776 13-02-2019 03:55:00 -0.3 C 94 % -1.15 C
1777 13-02-2019 04:00:00 -0.3 C 94 % -1.15 C
1778 13-02-2019 04:05:00 -0.4 C 94 % -1.25 C
1779 13-02-2019 04:10:00 -0.4 C 94 % -1.25 C
1780 13-02-2019 04:15:00 -0.4 C 94 % -1.25 C
1781 13-02-2019 04:20:00 -0.4 C 95 % -1.1 C
1782 13-02-2019 04:25:00 -0.4 C 94 % -1.25 C
1783 13-02-2019 04:30:00 -0.3 C 95 % -1 C
1784 13-02-2019 04:35:00 -0.3 C 95 % -1 C
1785 13-02-2019 04:40:00 -0.3 C 95 % -1 C
1786 13-02-2019 04:45:00 -0.3 C 95 % -1 C
1787 13-02-2019 04:50:00 -0.2 C 95 % -0.9 C
1788 13-02-2019 04:55:00 -0.3 C 95 % -1 C
1789 13-02-2019 05:00:00 -0.3 C 95 % -1 C
1790 13-02-2019 05:05:00 -0.3 C 95 % -1 C
1791 13-02-2019 05:10:00 -0.3 C 95 % -1 C
1792 13-02-2019 05:15:00 -0.3 C 95 % -1 C
1793 13-02-2019 05:20:00 -0.4 C 95 % -1.1 C
1794 13-02-2019 05:25:00 -0.5 C 95 % -1.2 C
1795 13-02-2019 05:30:00 -0.5 C 95 % -1.2 C
1796 13-02-2019 05:35:00 -0.6 C 95 % -1.3 C
1797 13-02-2019 05:40:00 -0.6 C 95 % -1.3 C
1798 13-02-2019 05:45:00 -0.6 C 95 % -1.3 C
1799 13-02-2019 05:50:00 -0.6 C 95 % -1.3 C
1800 13-02-2019 05:55:00 -0.6 C 95 % -1.3 C
Sensor: Nr:Datum:Temp:Feuchte:Taupunkt:
Aussen-T/F 1801 13-02-2019 06:00:00 -0.6 C 95 % -1.3 C
1802 13-02-2019 06:05:00 -0.6 C 95 % -1.3 C
1803 13-02-2019 06:10:00 -0.5 C 95 % -1.2 C
1804 13-02-2019 06:15:00 -0.5 C 95 % -1.2 C
1805 13-02-2019 06:20:00 -0.6 C 95 % -1.3 C
1806 13-02-2019 06:25:00 -0.6 C 95 % -1.3 C
1807 13-02-2019 06:30:00 -0.5 C 95 % -1.2 C
1808 13-02-2019 06:35:00 -0.5 C 95 % -1.2 C
1809 13-02-2019 06:40:00 -0.4 C 95 % -1.1 C
1810 13-02-2019 06:45:00 -0.3 C 95 % -1 C
1811 13-02-2019 06:50:00 -0.2 C 96 % -0.76 C
1812 13-02-2019 06:55:00 -0.1 C 96 % -0.66 C
1813 13-02-2019 07:00:00 0 C 96 % -0.56 C
1814 13-02-2019 07:05:00 0.1 C 96 % -0.46 C
1815 13-02-2019 07:10:00 0.1 C 96 % -0.46 C
1816 13-02-2019 07:15:00 0.2 C 96 % -0.36 C
1817 13-02-2019 07:20:00 0.3 C 96 % -0.26 C
1818 13-02-2019 07:25:00 0.3 C 96 % -0.26 C
1819 13-02-2019 07:30:00 0.3 C 96 % -0.26 C
1820 13-02-2019 07:35:00 0.3 C 96 % -0.26 C
1821 13-02-2019 07:40:00 0.4 C 96 % -0.16 C
1822 13-02-2019 07:45:00 0.4 C 96 % -0.16 C
1823 13-02-2019 07:50:00 0.4 C 96 % -0.16 C
1824 13-02-2019 07:55:00 0.4 C 96 % -0.16 C
1825 13-02-2019 08:00:00 0.5 C 96 % -0.06 C
Sensor: Nr:Datum:Temp:Feuchte:Taupunkt:
Aussen-T/F 1826 13-02-2019 08:05:00 0.5 C 96 % -0.06 C
1827 13-02-2019 08:10:00 0.6 C 96 % 0.04 C
1828 13-02-2019 08:15:00 0.6 C 96 % 0.04 C
1829 13-02-2019 08:20:00 0.6 C 96 % 0.04 C
1830 13-02-2019 08:25:00 0.7 C 96 % 0.14 C
1831 13-02-2019 08:30:00 0.7 C 96 % 0.14 C
1832 13-02-2019 08:35:00 0.7 C 96 % 0.14 C
1833 13-02-2019 08:40:00 0.7 C 95 % -0.01 C
1834 13-02-2019 08:45:00 0.8 C 95 % 0.09 C
1835 13-02-2019 08:50:00 0.8 C 95 % 0.09 C
1836 13-02-2019 08:55:00 0.8 C 95 % 0.09 C
1837 13-02-2019 09:00:00 0.9 C 95 % 0.19 C
1838 13-02-2019 09:05:00 0.9 C 96 % 0.34 C
1839 13-02-2019 09:10:00 0.9 C 95 % 0.19 C
1840 13-02-2019 09:15:00 0.9 C 95 % 0.19 C
1841 13-02-2019 09:20:00 1 C 95 % 0.29 C
1842 13-02-2019 09:25:00 1 C 95 % 0.29 C
1843 13-02-2019 09:30:00 1 C 95 % 0.29 C
1844 13-02-2019 09:35:00 1 C 95 % 0.29 C
1845 13-02-2019 09:40:00 1.1 C 95 % 0.39 C
1846 13-02-2019 09:45:00 1.1 C 95 % 0.39 C
1847 13-02-2019 09:50:00 1.1 C 95 % 0.39 C
1848 13-02-2019 09:55:00 1.2 C 95 % 0.49 C
1849 13-02-2019 10:00:00 1.3 C 95 % 0.59 C
1850 13-02-2019 10:05:00 1.3 C 94 % 0.44 C
Sensor: Nr:Datum:Temp:Feuchte:Taupunkt:
Aussen-T/F 1851 13-02-2019 10:10:00 1.3 C 94 % 0.44 C
1852 13-02-2019 10:15:00 1.4 C 94 % 0.54 C
1853 13-02-2019 10:20:00 1.5 C 94 % 0.64 C
1854 13-02-2019 10:25:00 1.6 C 94 % 0.74 C
1855 13-02-2019 10:30:00 1.7 C 94 % 0.84 C
1856 13-02-2019 10:35:00 1.7 C 93 % 0.69 C
1857 13-02-2019 10:40:00 1.8 C 93 % 0.79 C
1858 13-02-2019 10:45:00 1.8 C 93 % 0.79 C
1859 13-02-2019 10:50:00 1.9 C 93 % 0.89 C
1860 13-02-2019 10:55:00 2 C 93 % 0.99 C
1861 13-02-2019 11:00:00 2.1 C 93 % 1.09 C
1862 13-02-2019 11:05:00 2.2 C 92 % 1.04 C
1863 13-02-2019 11:10:00 2.2 C 92 % 1.04 C
1864 13-02-2019 11:15:00 2.3 C 91 % 0.99 C
1865 13-02-2019 11:20:00 2.3 C 91 % 0.99 C
1866 13-02-2019 11:25:00 2.3 C 91 % 0.99 C
1867 13-02-2019 11:30:00 2.3 C 91 % 0.99 C
1868 13-02-2019 11:35:00 2.3 C 91 % 0.99 C
1869 13-02-2019 11:40:00 2.4 C 91 % 1.08 C
1870 13-02-2019 11:45:00 2.4 C 91 % 1.08 C
1871 13-02-2019 11:50:00 2.5 C 91 % 1.18 C
1872 13-02-2019 11:55:00 2.6 C 91 % 1.28 C
1873 13-02-2019 12:00:00 2.7 C 91 % 1.38 C
1874 13-02-2019 12:05:00 2.8 C 91 % 1.48 C
1875 13-02-2019 12:10:00 2.9 C 91 % 1.58 C
Sensor: Nr:Datum:Temp:Feuchte:Taupunkt:
Aussen-T/F 1876 13-02-2019 12:15:00 3.1 C 91 % 1.78 C
1877 13-02-2019 12:20:00 3.3 C 91 % 1.98 C
1878 13-02-2019 12:25:00 3.5 C 90 % 2.02 C
1879 13-02-2019 12:30:00 3.7 C 90 % 2.22 C
1880 13-02-2019 12:35:00 3.9 C 89 % 2.26 C
1881 13-02-2019 12:40:00 4.1 C 88 % 2.3 C
1882 13-02-2019 12:45:00 4.3 C 87 % 2.33 C
1883 13-02-2019 12:50:00 4.3 C 86 % 2.17 C
1884 13-02-2019 12:55:00 4.4 C 86 % 2.27 C
1885 13-02-2019 13:00:00 4.6 C 86 % 2.47 C
1886 13-02-2019 13:05:00 4.6 C 85 % 2.3 C
1887 13-02-2019 13:10:00 4.7 C 86 % 2.56 C
1888 13-02-2019 13:15:00 4.8 C 85 % 2.5 C
1889 13-02-2019 13:20:00 4.8 C 85 % 2.5 C
1890 13-02-2019 13:25:00 4.9 C 85 % 2.6 C
1891 13-02-2019 13:30:00 4.9 C 84 % 2.43 C
1892 13-02-2019 13:35:00 4.9 C 84 % 2.43 C
1893 13-02-2019 13:40:00 5 C 84 % 2.53 C
1894 13-02-2019 13:45:00 5.1 C 84 % 2.63 C
1895 13-02-2019 13:50:00 5.2 C 84 % 2.72 C
1896 13-02-2019 13:55:00 5.2 C 84 % 2.72 C
1897 13-02-2019 14:00:00 5.2 C 83 % 2.56 C
1898 13-02-2019 14:05:00 5.3 C 84 % 2.82 C
1899 13-02-2019 14:10:00 5.3 C 83 % 2.65 C
1900 13-02-2019 14:15:00 5.4 C 83 % 2.75 C
Sensor: Nr:Datum:Temp:Feuchte:Taupunkt:
Aussen-T/F 1901 13-02-2019 14:20:00 5.4 C 83 % 2.75 C
1902 13-02-2019 14:25:00 5.4 C 83 % 2.75 C
1903 13-02-2019 14:30:00 5.5 C 83 % 2.85 C
1904 13-02-2019 14:35:00 5.5 C 83 % 2.85 C
1905 13-02-2019 14:40:00 5.5 C 83 % 2.85 C
1906 13-02-2019 14:45:00 5.5 C 83 % 2.85 C
1907 13-02-2019 14:50:00 5.5 C 83 % 2.85 C
1908 13-02-2019 14:55:00 5.5 C 83 % 2.85 C
1909 13-02-2019 15:00:00 5.5 C 83 % 2.85 C
1910 13-02-2019 15:05:00 5.5 C 83 % 2.85 C
1911 13-02-2019 15:10:00 5.5 C 83 % 2.85 C
1912 13-02-2019 15:15:00 5.5 C 83 % 2.85 C
1913 13-02-2019 15:20:00 5.5 C 83 % 2.85 C
1914 13-02-2019 15:25:00 5.6 C 83 % 2.95 C
1915 13-02-2019 15:30:00 5.6 C 83 % 2.95 C
1916 13-02-2019 15:35:00 5.6 C 83 % 2.95 C
1917 13-02-2019 15:40:00 5.7 C 83 % 3.04 C
1918 13-02-2019 15:45:00 5.7 C 83 % 3.04 C
1919 13-02-2019 15:50:00 5.7 C 84 % 3.21 C
1920 13-02-2019 15:55:00 5.8 C 84 % 3.31 C
1921 13-02-2019 16:00:00 5.8 C 84 % 3.31 C
1922 13-02-2019 16:05:00 5.8 C 84 % 3.31 C
1923 13-02-2019 16:10:00 5.7 C 84 % 3.21 C
1924 13-02-2019 16:15:00 5.7 C 85 % 3.38 C
1925 13-02-2019 16:20:00 5.6 C 85 % 3.28 C
Sensor: Nr:Datum:Temp:Feuchte:Taupunkt:
Aussen-T/F 1926 13-02-2019 16:25:00 5.6 C 85 % 3.28 C
1927 13-02-2019 16:30:00 5.5 C 86 % 3.35 C
1928 13-02-2019 16:35:00 5.4 C 86 % 3.25 C
1929 13-02-2019 16:40:00 5.4 C 87 % 3.41 C
1930 13-02-2019 16:45:00 5.4 C 87 % 3.41 C
1931 13-02-2019 16:50:00 5.3 C 88 % 3.48 C
1932 13-02-2019 16:55:00 5.3 C 88 % 3.48 C
1933 13-02-2019 17:00:00 5.3 C 88 % 3.48 C
1934 13-02-2019 17:05:00 5.2 C 88 % 3.38 C
1935 13-02-2019 17:10:00 5.2 C 88 % 3.38 C
1936 13-02-2019 17:15:00 5.1 C 88 % 3.28 C
1937 13-02-2019 17:20:00 4.9 C 88 % 3.08 C
1938 13-02-2019 17:25:00 4.8 C 88 % 2.99 C
1939 13-02-2019 17:30:00 4.7 C 88 % 2.89 C
1940 13-02-2019 17:35:00 4.5 C 89 % 2.85 C
1941 13-02-2019 17:40:00 4.3 C 89 % 2.65 C
1942 13-02-2019 17:45:00 4.2 C 89 % 2.55 C
1943 13-02-2019 17:50:00 4.1 C 90 % 2.61 C
1944 13-02-2019 17:55:00 4 C 89 % 2.36 C
1945 13-02-2019 18:00:00 3.8 C 90 % 2.31 C
1946 13-02-2019 18:05:00 3.7 C 90 % 2.22 C
1947 13-02-2019 18:10:00 3.6 C 90 % 2.12 C
1948 13-02-2019 18:15:00 3.4 C 90 % 1.92 C
1949 13-02-2019 18:20:00 3.3 C 90 % 1.82 C
1950 13-02-2019 18:25:00 3.3 C 91 % 1.98 C
Sensor: Nr:Datum:Temp:Feuchte:Taupunkt:
Aussen-T/F 1951 13-02-2019 18:30:00 3.2 C 91 % 1.88 C
1952 13-02-2019 18:35:00 3.1 C 91 % 1.78 C
1953 13-02-2019 18:40:00 2.9 C 90 % 1.43 C
1954 13-02-2019 18:45:00 2.8 C 91 % 1.48 C
1955 13-02-2019 18:50:00 2.7 C 91 % 1.38 C
1956 13-02-2019 18:55:00 2.7 C 91 % 1.38 C
1957 13-02-2019 19:00:00 2.6 C 91 % 1.28 C
1958 13-02-2019 19:05:00 2.4 C 91 % 1.08 C
1959 13-02-2019 19:10:00 2.3 C 91 % 0.99 C
1960 13-02-2019 19:15:00 2.1 C 91 % 0.79 C
1961 13-02-2019 19:20:00 1.9 C 91 % 0.59 C
1962 13-02-2019 19:25:00 1.7 C 91 % 0.39 C
1963 13-02-2019 19:30:00 1.6 C 92 % 0.44 C
1964 13-02-2019 19:35:00 1.6 C 92 % 0.44 C
1965 13-02-2019 19:40:00 1.6 C 93 % 0.59 C
1966 13-02-2019 19:45:00 1.6 C 93 % 0.59 C
1967 13-02-2019 19:50:00 1.4 C 92 % 0.25 C
1968 13-02-2019 19:55:00 1.4 C 92 % 0.25 C
1969 13-02-2019 20:00:00 1.4 C 93 % 0.4 C
1970 13-02-2019 20:05:00 1.3 C 93 % 0.3 C
1971 13-02-2019 20:10:00 1.3 C 93 % 0.3 C
1972 13-02-2019 20:15:00 1.3 C 93 % 0.3 C
1973 13-02-2019 20:20:00 1.2 C 93 % 0.2 C
1974 13-02-2019 20:25:00 1.2 C 93 % 0.2 C
1975 13-02-2019 20:30:00 1.2 C 93 % 0.2 C
Sensor: Nr:Datum:Temp:Feuchte:Taupunkt:
Aussen-T/F 1976 13-02-2019 20:35:00 1.1 C 93 % 0.1 C
1977 13-02-2019 20:40:00 1.1 C 93 % 0.1 C
1978 13-02-2019 20:45:00 1 C 93 % 0 C
1979 13-02-2019 20:50:00 0.9 C 93 % -0.1 C
1980 13-02-2019 20:55:00 0.8 C 92 % -0.35 C
1981 13-02-2019 21:00:00 0.8 C 93 % -0.2 C
1982 13-02-2019 21:05:00 0.7 C 93 % -0.3 C
1983 13-02-2019 21:10:00 0.8 C 93 % -0.2 C
1984 13-02-2019 21:15:00 0.9 C 93 % -0.1 C
1985 13-02-2019 21:20:00 0.8 C 92 % -0.35 C
1986 13-02-2019 21:25:00 0.7 C 92 % -0.45 C
1987 13-02-2019 21:30:00 0.5 C 92 % -0.65 C
1988 13-02-2019 21:35:00 0.4 C 92 % -0.74 C
1989 13-02-2019 21:40:00 0.4 C 92 % -0.74 C
1990 13-02-2019 21:45:00 0.3 C 92 % -0.84 C
1991 13-02-2019 21:50:00 0.2 C 92 % -0.94 C
1992 13-02-2019 21:55:00 0.2 C 92 % -0.94 C
1993 13-02-2019 22:00:00 0.2 C 93 % -0.79 C
1994 13-02-2019 22:05:00 0.2 C 93 % -0.79 C
1995 13-02-2019 22:10:00 0.2 C 93 % -0.79 C
1996 13-02-2019 22:15:00 0.1 C 93 % -0.89 C
1997 13-02-2019 22:20:00 0.2 C 93 % -0.79 C
1998 13-02-2019 22:25:00 0.2 C 93 % -0.79 C
1999 13-02-2019 22:30:00 0.3 C 93 % -0.7 C
2000 13-02-2019 22:35:00 0.2 C 93 % -0.79 C
Sensor: Nr:Datum:Temp:Feuchte:Taupunkt:
Aussen-T/F 2001 13-02-2019 22:40:00 0.1 C 93 % -0.89 C
2002 13-02-2019 22:45:00 0 C 93 % -0.99 C
2003 13-02-2019 22:50:00 -0.1 C 93 % -1.09 C
2004 13-02-2019 22:55:00 -0.1 C 93 % -1.09 C
2005 13-02-2019 23:00:00 -0.1 C 93 % -1.09 C
2006 13-02-2019 23:05:00 -0.2 C 93 % -1.19 C
2007 13-02-2019 23:10:00 -0.3 C 93 % -1.29 C
2008 13-02-2019 23:15:00 -0.3 C 93 % -1.29 C
2009 13-02-2019 23:20:00 -0.3 C 93 % -1.29 C
2010 13-02-2019 23:25:00 -0.4 C 93 % -1.39 C
2011 13-02-2019 23:30:00 -0.6 C 93 % -1.59 C
2012 13-02-2019 23:35:00 -0.6 C 93 % -1.59 C
2013 13-02-2019 23:40:00 -0.6 C 93 % -1.59 C
2014 13-02-2019 23:45:00 -0.6 C 93 % -1.59 C
2015 13-02-2019 23:50:00 -0.7 C 93 % -1.69 C
2016 13-02-2019 23:55:00 -0.7 C 93 % -1.69 C

Legende:
   Min
   Max


Maximal/Minimal-Werte vom 07.02.2019 - 13.02.2019

Sensor Min Max Avg
Temp
(Aussen-T/F)
-0.7 °C
13-02-2019  23:50:00
11.2 °C
09-02-2019  14:10:00
5.64 °C
Feuchte
(Aussen-T/F)
67 %
09-02-2019  14:15:00
96 %
07-02-2019  10:50:00
86.38 %
Taupunkt
(Aussen-T/F)
-1.69 C
13-02-2019  23:50:00
8.66 C
10-02-2019  13:35:00
3.5 C

Die Daten stammen von einer Davis Vantage Pro 2 Wetter-Station und werden unter Linux mit der Software wview2wettercgi und aufbereitet. Alle Angaben erfolgen ohne Gewähr für ihre Vollständigkeit oder Richtigkeit.
Kontakt: Rainer Krienke krienke@uni-koblenz.de . Meine Webseiten an der Uni Koblenz oder privat.
Version: $Revision: 0.78 $